Time,TemperatureF,DewpointF,PressureIn,WindDirection,WindDirectionDegrees,WindSpeedMPH,WindSpeedGustMPH,Humidity,HourlyPrecipIn,Conditions,Clouds,dailyrainin,SoftwareType,DateUTC
2013-04-24 00:01:00,48.6,41.7,29.91,SE,135,1.3,1.3,77,0.00,,,0.00,WUHU216HW,2013-04-24 04:01:00,
2013-04-24 00:03:00,48.1,41.5,29.91,SE,135,1.1,1.8,78,0.00,,,0.00,WUHU216HW,2013-04-24 04:03:00,
2013-04-24 00:06:00,47.5,40.6,29.91,SE,135,0.9,1.8,77,0.00,,,0.00,WUHU216HW,2013-04-24 04:06:00,
2013-04-24 00:07:00,47.5,40.6,29.91,SE,135,0.0,1.8,77,0.00,,,0.00,WUHU216HW,2013-04-24 04:07:00,
2013-04-24 00:08:00,47.3,40.5,29.91,SE,135,0.0,1.8,77,0.00,,,0.00,WUHU216HW,2013-04-24 04:08:00,
2013-04-24 00:13:00,47.0,40.5,29.92,WSW,248,1.8,1.8,78,0.00,,,0.00,WUHU216HW,2013-04-24 04:13:00,
2013-04-24 00:14:00,47.2,41.3,29.92,SW,225,3.1,3.1,80,0.00,,,0.00,WUHU216HW,2013-04-24 04:14:00,
2013-04-24 00:15:00,47.2,41.7,29.92,SW,225,3.4,3.4,81,0.00,,,0.00,WUHU216HW,2013-04-24 04:15:00,
2013-04-24 00:18:00,46.8,41.3,29.92,SSW,203,2.9,3.4,81,0.00,,,0.00,WUHU216HW,2013-04-24 04:18:00,
2013-04-24 00:19:00,46.8,41.3,29.92,SW,225,2.2,3.4,81,0.00,,,0.00,WUHU216HW,2013-04-24 04:19:00,
2013-04-24 00:21:00,46.4,41.0,29.92,SW,225,4.0,4.0,81,0.00,,,0.00,WUHU216HW,2013-04-24 04:21:00,
2013-04-24 00:23:00,46.3,41.4,29.92,SW,225,5.8,5.8,83,0.00,,,0.00,WUHU216HW,2013-04-24 04:23:00,
2013-04-24 00:24:00,46.4,42.0,29.91,SW,225,6.3,6.3,84,0.00,,,0.00,WUHU216HW,2013-04-24 04:24:00,
2013-04-24 00:26:00,46.8,42.2,29.92,SW,225,5.4,6.7,84,0.00,,,0.00,WUHU216HW,2013-04-24 04:26:00,
2013-04-24 00:29:00,47.3,42.5,29.92,SW,225,4.9,6.7,83,0.00,,,0.00,WUHU216HW,2013-04-24 04:29:00,
2013-04-24 00:30:00,47.7,42.8,29.92,West,270,5.4,6.7,83,0.00,,,0.00,WUHU216HW,2013-04-24 04:30:00,
2013-04-24 00:31:00,47.9,42.9,29.92,WSW,248,5.4,6.7,83,0.00,,,0.00,WUHU216HW,2013-04-24 04:31:00,
2013-04-24 00:34:00,49.0,43.7,29.92,SW,225,5.4,6.7,82,0.00,,,0.00,WUHU216HW,2013-04-24 04:34:00,
2013-04-24 00:35:00,49.3,43.7,29.92,WSW,248,5.1,5.6,81,0.00,,,0.00,WUHU216HW,2013-04-24 04:35:00,
2013-04-24 00:36:00,49.3,43.7,29.92,WSW,248,5.1,5.6,81,0.00,,,0.00,WUHU216HW,2013-04-24 04:36:00,
2013-04-24 00:37:00,49.9,43.9,29.92,SW,225,5.8,5.8,80,0.00,,,0.00,WUHU216HW,2013-04-24 04:37:00,
2013-04-24 00:39:00,49.9,43.6,29.92,SW,225,5.8,6.3,79,0.00,,,0.00,WUHU216HW,2013-04-24 04:39:00,
2013-04-24 00:40:00,49.9,43.6,29.92,WSW,248,6.5,6.5,79,0.00,,,0.00,WUHU216HW,2013-04-24 04:40:00,
2013-04-24 00:41:00,49.9,43.6,29.92,WSW,248,6.5,6.5,79,0.00,,,0.00,WUHU216HW,2013-04-24 04:41:00,
2013-04-24 00:42:00,49.7,43.7,29.92,SW,225,4.7,6.5,80,0.00,,,0.00,WUHU216HW,2013-04-24 04:42:00,
2013-04-24 00:45:00,49.5,43.6,29.92,SW,225,5.6,6.5,80,0.00,,,0.00,WUHU216HW,2013-04-24 04:45:00,
2013-04-24 00:46:00,49.5,43.6,29.92,SW,225,5.6,6.5,80,0.00,,,0.00,WUHU216HW,2013-04-24 04:46:00,
2013-04-24 00:47:00,49.3,43.4,29.92,SW,225,4.3,6.5,80,0.00,,,0.00,WUHU216HW,2013-04-24 04:47:00,
2013-04-24 00:51:00,48.8,42.8,29.92,SW,225,3.6,6.5,80,0.00,,,0.00,WUHU216HW,2013-04-24 04:51:00,
2013-04-24 00:52:00,48.6,42.7,29.92,SW,225,4.3,5.8,80,0.00,,,0.00,WUHU216HW,2013-04-24 04:52:00,
2013-04-24 00:53:00,48.2,42.3,29.92,SW,225,4.0,5.6,80,0.00,,,0.00,WUHU216HW,2013-04-24 04:53:00,
2013-04-24 00:54:00,48.2,42.3,29.92,SSW,203,3.8,5.6,80,0.00,,,0.00,WUHU216HW,2013-04-24 04:54:00,
2013-04-24 00:56:00,48.1,42.5,29.92,SW,225,3.4,4.5,81,0.00,,,0.00,WUHU216HW,2013-04-24 04:56:00,
2013-04-24 00:57:00,48.1,42.5,29.91,SSW,203,2.0,4.5,81,0.00,,,0.00,WUHU216HW,2013-04-24 04:57:00,
2013-04-24 00:58:00,47.9,42.3,29.91,SSW,203,3.4,4.5,81,0.00,,,0.00,WUHU216HW,2013-04-24 04:58:00,
2013-04-24 00:59:00,47.9,42.3,29.91,SSW,203,3.4,4.5,81,0.00,,,0.00,WUHU216HW,2013-04-24 04:59:00,
2013-04-24 01:00:00,47.9,42.3,29.91,SW,225,3.8,4.5,81,0.00,,,0.00,WUHU216HW,2013-04-24 05:00:00,
2013-04-24 01:02:00,47.7,42.1,29.91,SSW,203,4.0,4.5,81,0.00,,,0.00,WUHU216HW,2013-04-24 05:02:00,
2013-04-24 01:03:00,47.7,42.1,29.91,SSW,203,3.4,4.0,81,0.00,,,0.00,WUHU216HW,2013-04-24 05:03:00,
2013-04-24 01:04:00,47.7,42.1,29.91,SW,225,3.8,4.0,81,0.00,,,0.00,WUHU216HW,2013-04-24 05:04:00,
2013-04-24 01:05:00,47.7,42.1,29.91,SW,225,4.0,4.0,81,0.00,,,0.00,WUHU216HW,2013-04-24 05:05:00,
2013-04-24 01:07:00,47.7,42.5,29.91,SW,225,4.3,4.5,82,0.00,,,0.00,WUHU216HW,2013-04-24 05:07:00,
2013-04-24 01:08:00,47.7,42.5,29.91,SW,225,4.7,4.7,82,0.00,,,0.00,WUHU216HW,2013-04-24 05:08:00,
2013-04-24 01:09:00,47.9,42.3,29.91,SSW,203,3.8,4.7,81,0.00,,,0.00,WUHU216HW,2013-04-24 05:09:00,
2013-04-24 01:10:00,47.9,42.3,29.91,SSW,203,3.8,4.7,81,0.00,,,0.00,WUHU216HW,2013-04-24 05:10:00,
2013-04-24 01:13:00,47.9,42.3,29.91,SSW,203,3.8,4.7,81,0.00,,,0.00,WUHU216HW,2013-04-24 05:13:00,
2013-04-24 01:14:00,47.9,42.3,29.91,SSW,203,3.8,4.7,81,0.00,,,0.00,WUHU216HW,2013-04-24 05:14:00,
2013-04-24 01:16:00,47.9,42.3,29.91,SSW,203,3.8,4.7,81,0.00,,,0.00,WUHU216HW,2013-04-24 05:16:00,
2013-04-24 01:39:00,47.0,42.4,29.90,SW,225,6.3,6.3,84,0.00,,,0.00,WUHU216HW,2013-04-24 05:39:00,
2013-04-24 01:40:00,47.2,42.6,29.90,SW,225,6.0,6.3,84,0.00,,,0.00,WUHU216HW,2013-04-24 05:40:00,
2013-04-24 01:44:00,47.2,42.6,29.90,SW,225,6.5,6.5,84,0.00,,,0.00,WUHU216HW,2013-04-24 05:44:00,
2013-04-24 01:45:00,47.2,42.6,29.90,SW,225,6.3,6.5,84,0.00,,,0.00,WUHU216HW,2013-04-24 05:45:00,
2013-04-24 01:49:00,46.8,42.2,29.90,SSW,203,4.0,6.9,84,0.00,,,0.00,WUHU216HW,2013-04-24 05:49:00,
2013-04-24 01:50:00,46.6,42.0,29.90,SW,225,4.3,6.9,84,0.00,,,0.00,WUHU216HW,2013-04-24 05:50:00,
2013-04-24 01:52:00,46.6,42.4,29.90,SW,225,5.6,6.9,85,0.00,,,0.00,WUHU216HW,2013-04-24 05:52:00,
2013-04-24 01:54:00,46.8,42.6,29.90,SW,225,6.9,7.2,85,0.00,,,0.00,WUHU216HW,2013-04-24 05:54:00,
2013-04-24 01:56:00,46.8,42.6,29.90,SW,225,6.9,7.2,85,0.00,,,0.00,WUHU216HW,2013-04-24 05:56:00,
2013-04-24 01:57:00,46.8,42.6,29.90,SW,225,6.9,7.2,85,0.00,,,0.00,WUHU216HW,2013-04-24 05:57:00,
2013-04-24 01:59:00,46.8,42.6,29.90,SW,225,6.9,7.2,85,0.00,,,0.00,WUHU216HW,2013-04-24 05:59:00,
2013-04-24 02:01:00,47.2,42.6,29.90,SW,225,6.9,7.4,84,0.00,,,0.00,WUHU216HW,2013-04-24 06:01:00,
2013-04-24 02:02:00,47.3,42.8,29.89,SW,225,7.2,7.4,84,0.00,,,0.00,WUHU216HW,2013-04-24 06:02:00,
2013-04-24 02:04:00,47.3,42.8,29.89,SW,225,6.9,7.4,84,0.00,,,0.00,WUHU216HW,2013-04-24 06:04:00,
2013-04-24 02:07:00,47.2,42.6,29.89,SW,225,6.0,7.4,84,0.00,,,0.00,WUHU216HW,2013-04-24 06:07:00,
2013-04-24 02:08:00,47.2,42.6,29.89,SW,225,6.0,7.4,84,0.00,,,0.00,WUHU216HW,2013-04-24 06:08:00,
2013-04-24 02:12:00,47.2,42.6,29.89,SW,225,5.4,7.2,84,0.00,,,0.00,WUHU216HW,2013-04-24 06:12:00,
2013-04-24 02:15:00,47.2,42.6,29.89,SSW,203,3.4,6.3,84,0.00,,,0.00,WUHU216HW,2013-04-24 06:15:00,
2013-04-24 02:18:00,47.2,42.6,29.89,SW,225,4.7,5.4,84,0.00,,,0.00,WUHU216HW,2013-04-24 06:18:00,
2013-04-24 02:20:00,47.2,42.6,29.89,SW,225,4.0,5.4,84,0.00,,,0.00,WUHU216HW,2013-04-24 06:20:00,
2013-04-24 02:22:00,47.2,42.6,29.89,SW,225,5.1,5.1,84,0.00,,,0.00,WUHU216HW,2013-04-24 06:22:00,
2013-04-24 02:23:00,47.2,42.6,29.89,SW,225,6.5,6.5,84,0.00,,,0.00,WUHU216HW,2013-04-24 06:23:00,
2013-04-24 02:24:00,47.2,42.6,29.89,SW,225,7.4,7.4,84,0.00,,,0.00,WUHU216HW,2013-04-24 06:24:00,
2013-04-24 02:26:00,47.3,42.8,29.89,SW,225,5.8,7.4,84,0.00,,,0.00,WUHU216HW,2013-04-24 06:26:00,
2013-04-24 02:28:00,47.3,42.8,29.88,SSW,203,5.1,7.4,84,0.00,,,0.00,WUHU216HW,2013-04-24 06:28:00,
2013-04-24 02:29:00,47.3,42.8,29.88,SSW,203,5.1,7.4,84,0.00,,,0.00,WUHU216HW,2013-04-24 06:29:00,
2013-04-24 02:31:00,47.3,42.8,29.88,SSW,203,4.7,7.4,84,0.00,,,0.00,WUHU216HW,2013-04-24 06:31:00,
2013-04-24 02:32:00,47.3,43.0,29.88,SSW,203,5.1,7.4,85,0.00,,,0.00,WUHU216HW,2013-04-24 06:32:00,
2013-04-24 02:34:00,47.3,43.0,29.88,SSW,203,4.9,7.4,85,0.00,,,0.00,WUHU216HW,2013-04-24 06:34:00,
2013-04-24 02:35:00,47.5,43.2,29.88,SW,225,6.3,6.3,85,0.00,,,0.00,WUHU216HW,2013-04-24 06:35:00,
2013-04-24 02:36:00,47.5,43.2,29.88,SSW,203,5.8,6.3,85,0.00,,,0.00,WUHU216HW,2013-04-24 06:36:00,
2013-04-24 02:38:00,47.5,43.2,29.88,SSW,203,4.0,6.3,85,0.00,,,0.00,WUHU216HW,2013-04-24 06:38:00,
2013-04-24 02:39:00,47.7,43.4,29.88,SW,225,5.1,6.3,85,0.00,,,0.00,WUHU216HW,2013-04-24 06:39:00,
2013-04-24 02:40:00,47.5,43.2,29.88,SSW,203,6.7,6.7,85,0.00,,,0.00,WUHU216HW,2013-04-24 06:40:00,
2013-04-24 02:42:00,47.5,42.9,29.88,SW,225,8.1,8.1,84,0.00,,,0.00,WUHU216HW,2013-04-24 06:42:00,
2013-04-24 02:43:00,47.5,43.2,29.88,SW,225,7.6,8.1,85,0.00,,,0.00,WUHU216HW,2013-04-24 06:43:00,
2013-04-24 02:44:00,47.5,42.9,29.88,SW,225,6.9,8.1,84,0.00,,,0.00,WUHU216HW,2013-04-24 06:44:00,
2013-04-24 02:45:00,47.5,42.9,29.88,SW,225,6.5,8.1,84,0.00,,,0.00,WUHU216HW,2013-04-24 06:45:00,
2013-04-24 02:47:00,47.5,42.9,29.88,SW,225,6.5,8.1,84,0.00,,,0.00,WUHU216HW,2013-04-24 06:47:00,
2013-04-24 02:48:00,47.3,42.8,29.87,SSW,203,5.4,8.1,84,0.00,,,0.00,WUHU216HW,2013-04-24 06:48:00,
2013-04-24 02:49:00,47.3,42.8,29.87,SSW,203,5.4,8.1,84,0.00,,,0.00,WUHU216HW,2013-04-24 06:49:00,
2013-04-24 02:50:00,47.3,43.0,29.87,SW,225,4.0,8.1,85,0.00,,,0.00,WUHU216HW,2013-04-24 06:50:00,
2013-04-24 02:51:00,47.2,42.9,29.87,SW,225,4.9,8.1,85,0.00,,,0.00,WUHU216HW,2013-04-24 06:51:00,
2013-04-24 02:54:00,47.0,42.8,29.88,WSW,248,4.9,6.9,85,0.00,,,0.00,WUHU216HW,2013-04-24 06:54:00,
2013-04-24 02:55:00,47.0,42.8,29.88,SW,225,4.7,6.5,85,0.00,,,0.00,WUHU216HW,2013-04-24 06:55:00,
2013-04-24 02:56:00,47.0,42.8,29.88,SW,225,4.7,6.5,85,0.00,,,0.00,WUHU216HW,2013-04-24 06:56:00,
2013-04-24 02:58:00,46.8,42.6,29.88,SW,225,2.9,5.1,85,0.00,,,0.00,WUHU216HW,2013-04-24 06:58:00,
2013-04-24 02:59:00,46.8,42.6,29.88,SW,225,2.9,5.1,85,0.00,,,0.00,WUHU216HW,2013-04-24 06:59:00,
2013-04-24 03:00:00,46.8,42.6,29.88,SW,225,2.9,5.1,85,0.00,,,0.00,WUHU216HW,2013-04-24 07:00:00,
2013-04-24 03:01:00,46.8,42.6,29.88,SSW,203,3.4,4.9,85,0.00,,,0.00,WUHU216HW,2013-04-24 07:01:00,
2013-04-24 03:02:00,47.0,42.8,29.88,SW,225,3.1,4.9,85,0.00,,,0.00,WUHU216HW,2013-04-24 07:02:00,
2013-04-24 03:04:00,46.8,42.6,29.87,SSW,203,2.2,4.7,85,0.00,,,0.00,WUHU216HW,2013-04-24 07:04:00,
2013-04-24 03:05:00,46.8,42.6,29.87,SSW,203,3.1,4.7,85,0.00,,,0.00,WUHU216HW,2013-04-24 07:05:00,
2013-04-24 03:06:00,46.8,42.6,29.87,SSW,203,2.5,4.0,85,0.00,,,0.00,WUHU216HW,2013-04-24 07:06:00,
2013-04-24 03:08:00,46.8,42.6,29.87,SSW,203,2.5,3.4,85,0.00,,,0.00,WUHU216HW,2013-04-24 07:08:00,
2013-04-24 03:10:00,46.8,42.6,29.87,SSW,203,2.7,3.4,85,0.00,,,0.00,WUHU216HW,2013-04-24 07:10:00,
2013-04-24 03:11:00,46.8,42.6,29.87,South,180,2.5,3.4,85,0.00,,,0.00,WUHU216HW,2013-04-24 07:11:00,
2013-04-24 03:13:00,46.8,42.6,29.87,SSW,203,3.4,3.4,85,0.00,,,0.00,WUHU216HW,2013-04-24 07:13:00,
2013-04-24 03:14:00,46.8,42.6,29.87,SSW,203,3.4,3.4,85,0.00,,,0.00,WUHU216HW,2013-04-24 07:14:00,
2013-04-24 03:15:00,46.8,42.6,29.87,SSW,203,4.3,4.3,85,0.00,,,0.00,WUHU216HW,2013-04-24 07:15:00,
2013-04-24 03:16:00,46.8,42.6,29.87,SW,225,4.0,4.3,85,0.00,,,0.00,WUHU216HW,2013-04-24 07:16:00,
2013-04-24 03:18:00,46.6,42.4,29.87,SSW,203,4.5,4.5,85,0.00,,,0.00,WUHU216HW,2013-04-24 07:18:00,
2013-04-24 03:19:00,46.6,42.4,29.87,SSW,203,4.0,4.5,85,0.00,,,0.00,WUHU216HW,2013-04-24 07:19:00,
2013-04-24 03:20:00,46.6,42.4,29.87,SSW,203,4.0,4.5,85,0.00,,,0.00,WUHU216HW,2013-04-24 07:20:00,
2013-04-24 03:22:00,46.6,42.4,29.87,SSW,203,4.0,4.5,85,0.00,,,0.00,WUHU216HW,2013-04-24 07:22:00,
2013-04-24 03:23:00,46.6,42.4,29.87,SSW,203,3.8,4.5,85,0.00,,,0.00,WUHU216HW,2013-04-24 07:23:00,
2013-04-24 03:25:00,46.8,42.6,29.87,South,180,4.5,4.5,85,0.00,,,0.00,WUHU216HW,2013-04-24 07:25:00,
2013-04-24 03:26:00,47.0,42.8,29.87,SW,225,4.7,4.7,85,0.00,,,0.00,WUHU216HW,2013-04-24 07:26:00,
2013-04-24 03:27:00,47.2,42.9,29.87,SSW,203,4.7,4.7,85,0.00,,,0.00,WUHU216HW,2013-04-24 07:27:00,
2013-04-24 03:28:00,47.3,43.0,29.86,SSW,203,4.3,4.7,85,0.00,,,0.00,WUHU216HW,2013-04-24 07:28:00,
2013-04-24 03:29:00,47.5,43.2,29.86,SSW,203,3.6,4.7,85,0.00,,,0.00,WUHU216HW,2013-04-24 07:29:00,
2013-04-24 03:30:00,47.5,42.9,29.86,SSW,203,3.8,4.7,84,0.00,,,0.00,WUHU216HW,2013-04-24 07:30:00,
2013-04-24 03:32:00,47.7,43.1,29.86,SSW,203,2.7,4.7,84,0.00,,,0.00,WUHU216HW,2013-04-24 07:32:00,
2013-04-24 03:33:00,47.7,42.8,29.86,SSW,203,2.9,4.7,83,0.00,,,0.00,WUHU216HW,2013-04-24 07:33:00,
2013-04-24 03:34:00,47.7,42.8,29.86,SW,225,3.1,4.7,83,0.00,,,0.00,WUHU216HW,2013-04-24 07:34:00,
2013-04-24 03:35:00,47.7,42.8,29.86,SSW,203,2.5,4.7,83,0.00,,,0.00,WUHU216HW,2013-04-24 07:35:00,
2013-04-24 03:37:00,47.5,42.6,29.86,SSW,203,2.5,4.3,83,0.00,,,0.00,WUHU216HW,2013-04-24 07:37:00,
2013-04-24 03:38:00,47.3,42.8,29.86,SSW,203,2.7,3.8,84,0.00,,,0.00,WUHU216HW,2013-04-24 07:38:00,
2013-04-24 03:39:00,47.3,42.8,29.86,SSW,203,2.5,3.8,84,0.00,,,0.00,WUHU216HW,2013-04-24 07:39:00,
2013-04-24 03:42:00,47.2,42.6,29.86,SSW,203,2.0,3.1,84,0.00,,,0.00,WUHU216HW,2013-04-24 07:42:00,
2013-04-24 03:43:00,47.2,42.6,29.86,SW,225,3.4,3.4,84,0.00,,,0.00,WUHU216HW,2013-04-24 07:43:00,
2013-04-24 03:44:00,47.2,42.6,29.86,SW,225,2.9,3.4,84,0.00,,,0.00,WUHU216HW,2013-04-24 07:44:00,
2013-04-24 03:47:00,47.2,42.6,29.86,SW,225,2.5,3.4,84,0.00,,,0.00,WUHU216HW,2013-04-24 07:47:00,
2013-04-24 03:48:00,47.2,42.6,29.86,SW,225,2.5,3.4,84,0.00,,,0.00,WUHU216HW,2013-04-24 07:48:00,
2013-04-24 03:49:00,47.2,42.6,29.86,SW,225,2.5,3.4,84,0.00,,,0.00,WUHU216HW,2013-04-24 07:49:00,
2013-04-24 03:50:00,47.2,42.6,29.86,SSW,203,2.5,3.4,84,0.00,,,0.00,WUHU216HW,2013-04-24 07:50:00,
2013-04-24 03:53:00,47.2,42.6,29.86,West,270,1.8,3.4,84,0.00,,,0.00,WUHU216HW,2013-04-24 07:53:00,
2013-04-24 03:54:00,47.2,42.6,29.86,WSW,248,2.2,3.4,84,0.00,,,0.00,WUHU216HW,2013-04-24 07:54:00,
2013-04-24 03:55:00,47.2,42.6,29.86,SSW,203,1.8,3.4,84,0.00,,,0.00,WUHU216HW,2013-04-24 07:55:00,
2013-04-24 03:58:00,47.2,42.6,29.86,WSW,248,2.2,3.4,84,0.00,,,0.00,WUHU216HW,2013-04-24 07:58:00,
2013-04-24 03:59:00,47.2,42.6,29.86,WSW,248,2.2,3.4,84,0.00,,,0.00,WUHU216HW,2013-04-24 07:59:00,
2013-04-24 04:00:00,47.2,42.3,29.86,West,270,2.0,3.4,83,0.00,,,0.00,WUHU216HW,2013-04-24 08:00:00,
2013-04-24 04:03:00,47.2,42.3,29.86,WNW,293,3.6,3.6,83,0.00,,,0.00,WUHU216HW,2013-04-24 08:03:00,
2013-04-24 04:04:00,47.2,42.3,29.86,WSW,248,4.0,4.0,83,0.00,,,0.00,WUHU216HW,2013-04-24 08:04:00,
2013-04-24 04:05:00,47.0,42.1,29.86,WSW,248,4.9,4.9,83,0.00,,,0.00,WUHU216HW,2013-04-24 08:05:00,
2013-04-24 04:06:00,47.0,42.4,29.86,WSW,248,5.1,5.1,84,0.00,,,0.00,WUHU216HW,2013-04-24 08:06:00,
2013-04-24 04:09:00,47.0,42.8,29.86,WSW,248,4.0,5.1,85,0.00,,,0.00,WUHU216HW,2013-04-24 08:09:00,
2013-04-24 04:11:00,47.2,42.9,29.86,SW,225,3.1,5.1,85,0.00,,,0.00,WUHU216HW,2013-04-24 08:11:00,
2013-04-24 04:12:00,47.2,42.6,29.86,SSW,203,2.9,5.1,84,0.00,,,0.00,WUHU216HW,2013-04-24 08:12:00,
2013-04-24 04:14:00,47.2,42.6,29.86,SSW,203,2.0,5.1,84,0.00,,,0.00,WUHU216HW,2013-04-24 08:14:00,
2013-04-24 04:16:00,47.2,42.6,29.86,SSW,203,2.0,5.1,84,0.00,,,0.00,WUHU216HW,2013-04-24 08:16:00,
2013-04-24 04:17:00,46.8,42.2,29.86,SW,225,2.5,4.3,84,0.00,,,0.00,WUHU216HW,2013-04-24 08:17:00,
2013-04-24 04:18:00,46.8,42.2,29.86,SSW,203,2.2,4.3,84,0.00,,,0.00,WUHU216HW,2013-04-24 08:18:00,
2013-04-24 04:21:00,46.6,42.0,29.86,SW,225,1.8,3.1,84,0.00,,,0.00,WUHU216HW,2013-04-24 08:21:00,
2013-04-24 04:22:00,46.4,42.2,29.86,SSW,203,1.6,2.5,85,0.00,,,0.00,WUHU216HW,2013-04-24 08:22:00,
2013-04-24 04:23:00,46.4,42.2,29.86,SSW,203,1.6,2.5,85,0.00,,,0.00,WUHU216HW,2013-04-24 08:23:00,
2013-04-24 04:24:00,46.4,42.2,29.86,SSW,203,1.3,2.5,85,0.00,,,0.00,WUHU216HW,2013-04-24 08:24:00,
2013-04-24 04:26:00,46.3,42.0,29.86,SW,225,1.8,2.5,85,0.00,,,0.00,WUHU216HW,2013-04-24 08:26:00,
2013-04-24 04:28:00,46.3,42.0,29.86,SSE,158,2.5,2.5,85,0.00,,,0.00,WUHU216HW,2013-04-24 08:28:00,
2013-04-24 04:30:00,46.3,42.0,29.86,South,180,1.6,2.5,85,0.00,,,0.00,WUHU216HW,2013-04-24 08:30:00,
2013-04-24 04:31:00,46.3,42.3,29.86,SSW,203,2.9,2.9,86,0.00,,,0.00,WUHU216HW,2013-04-24 08:31:00,
2013-04-24 04:34:00,46.4,42.5,29.86,SW,225,2.9,2.9,86,0.00,,,0.00,WUHU216HW,2013-04-24 08:34:00,
2013-04-24 04:35:00,46.4,42.5,29.86,SSW,203,3.6,3.6,86,0.00,,,0.00,WUHU216HW,2013-04-24 08:35:00,
2013-04-24 04:37:00,46.4,42.5,29.86,SW,225,3.4,3.6,86,0.00,,,0.00,WUHU216HW,2013-04-24 08:37:00,
2013-04-24 04:39:00,46.3,42.3,29.86,SSW,203,3.4,4.7,86,0.00,,,0.00,WUHU216HW,2013-04-24 08:39:00,
2013-04-24 04:40:00,46.3,42.3,29.86,SSW,203,3.4,4.7,86,0.00,,,0.00,WUHU216HW,2013-04-24 08:40:00,
2013-04-24 04:41:00,46.3,42.3,29.86,SW,225,3.4,4.7,86,0.00,,,0.00,WUHU216HW,2013-04-24 08:41:00,
2013-04-24 04:42:00,46.3,42.3,29.86,SW,225,4.0,4.7,86,0.00,,,0.00,WUHU216HW,2013-04-24 08:42:00,
2013-04-24 04:45:00,46.3,42.7,29.86,SSW,203,3.4,4.7,87,0.00,,,0.00,WUHU216HW,2013-04-24 08:45:00,
2013-04-24 04:46:00,46.3,42.3,29.86,SSW,203,2.7,4.7,86,0.00,,,0.00,WUHU216HW,2013-04-24 08:46:00,
2013-04-24 04:47:00,46.3,42.3,29.86,SSW,203,2.7,4.7,86,0.00,,,0.00,WUHU216HW,2013-04-24 08:47:00,
2013-04-24 04:48:00,46.1,42.1,29.86,SSW,203,2.2,4.7,86,0.00,,,0.00,WUHU216HW,2013-04-24 08:48:00,
2013-04-24 04:50:00,46.3,42.3,29.86,SSW,203,2.9,4.0,86,0.00,,,0.00,WUHU216HW,2013-04-24 08:50:00,
2013-04-24 04:52:00,46.3,42.7,29.85,SSW,203,3.8,4.0,87,0.00,,,0.00,WUHU216HW,2013-04-24 08:52:00,
2013-04-24 04:53:00,46.3,42.7,29.85,South,180,3.4,3.8,87,0.00,,,0.00,WUHU216HW,2013-04-24 08:53:00,
2013-04-24 04:55:00,46.4,42.5,29.85,SSW,203,5.4,5.4,86,0.00,,,0.00,WUHU216HW,2013-04-24 08:55:00,
2013-04-24 04:58:00,46.6,42.7,29.85,SW,225,6.0,6.0,86,0.00,,,0.00,WUHU216HW,2013-04-24 08:58:00,
2013-04-24 05:00:00,46.6,42.7,29.85,SW,225,4.3,6.0,86,0.00,,,0.00,WUHU216HW,2013-04-24 09:00:00,
2013-04-24 05:03:00,46.4,42.5,29.85,SSW,203,4.5,6.0,86,0.00,,,0.00,WUHU216HW,2013-04-24 09:03:00,
2013-04-24 05:04:00,46.4,42.5,29.85,South,180,4.0,6.0,86,0.00,,,0.00,WUHU216HW,2013-04-24 09:04:00,
2013-04-24 05:06:00,46.3,42.3,29.85,SSW,203,3.4,6.0,86,0.00,,,0.00,WUHU216HW,2013-04-24 09:06:00,
2013-04-24 05:09:00,46.3,42.7,29.85,SSW,203,3.8,4.5,87,0.00,,,0.00,WUHU216HW,2013-04-24 09:09:00,
2013-04-24 05:11:00,46.3,42.7,29.85,SSW,203,3.1,4.5,87,0.00,,,0.00,WUHU216HW,2013-04-24 09:11:00,
2013-04-24 05:12:00,46.3,42.3,29.85,SW,225,3.4,4.5,86,0.00,,,0.00,WUHU216HW,2013-04-24 09:12:00,
2013-04-24 05:15:00,46.1,42.1,29.85,SSW,203,5.4,5.4,86,0.00,,,0.00,WUHU216HW,2013-04-24 09:15:00,
2013-04-24 05:17:00,46.1,42.5,29.85,SSW,203,4.7,5.4,87,0.00,,,0.00,WUHU216HW,2013-04-24 09:17:00,
2013-04-24 05:19:00,46.1,42.5,29.85,SSW,203,4.7,5.4,87,0.00,,,0.00,WUHU216HW,2013-04-24 09:19:00,
2013-04-24 05:20:00,46.1,42.5,29.85,SSW,203,6.0,6.0,87,0.00,,,0.00,WUHU216HW,2013-04-24 09:20:00,
2013-04-24 05:21:00,46.1,42.5,29.85,SSW,203,6.0,6.0,87,0.00,,,0.00,WUHU216HW,2013-04-24 09:21:00,
2013-04-24 05:23:00,46.1,42.5,29.85,SW,225,6.3,6.3,87,0.00,,,0.00,WUHU216HW,2013-04-24 09:23:00,
2013-04-24 05:24:00,46.3,42.7,29.85,SW,225,6.9,6.9,87,0.00,,,0.00,WUHU216HW,2013-04-24 09:24:00,
2013-04-24 05:26:00,46.8,43.2,29.85,SW,225,6.9,6.9,87,0.00,,,0.00,WUHU216HW,2013-04-24 09:26:00,
2013-04-24 05:27:00,46.8,43.2,29.85,SW,225,6.9,6.9,87,0.00,,,0.00,WUHU216HW,2013-04-24 09:27:00,
2013-04-24 05:28:00,47.2,43.2,29.85,SW,225,4.5,6.9,86,0.00,,,0.00,WUHU216HW,2013-04-24 09:28:00,
2013-04-24 05:29:00,47.2,43.2,29.85,SW,225,4.5,6.9,86,0.00,,,0.00,WUHU216HW,2013-04-24 09:29:00,
2013-04-24 05:31:00,47.2,42.9,29.85,SW,225,4.9,6.9,85,0.00,,,0.00,WUHU216HW,2013-04-24 09:31:00,
2013-04-24 05:33:00,47.2,42.9,29.85,SW,225,5.6,6.9,85,0.00,,,0.00,WUHU216HW,2013-04-24 09:33:00,
2013-04-24 05:34:00,47.2,42.9,29.85,SW,225,5.6,6.9,85,0.00,,,0.00,WUHU216HW,2013-04-24 09:34:00,
2013-04-24 05:37:00,47.2,42.9,29.86,WSW,248,5.1,6.3,85,0.00,,,0.00,WUHU216HW,2013-04-24 09:37:00,
2013-04-24 05:39:00,47.0,42.8,29.86,WSW,248,6.3,6.3,85,0.00,,,0.00,WUHU216HW,2013-04-24 09:39:00,
2013-04-24 05:40:00,47.2,42.9,29.86,WSW,248,6.5,6.5,85,0.00,,,0.00,WUHU216HW,2013-04-24 09:40:00,
2013-04-24 05:42:00,47.3,43.0,29.86,SW,225,6.0,6.5,85,0.00,,,0.00,WUHU216HW,2013-04-24 09:42:00,
2013-04-24 05:45:00,47.2,42.6,29.86,SW,225,5.1,7.2,84,0.00,,,0.00,WUHU216HW,2013-04-24 09:45:00,
2013-04-24 05:46:00,47.2,42.6,29.86,SW,225,3.4,7.2,84,0.00,,,0.00,WUHU216HW,2013-04-24 09:46:00,
2013-04-24 05:48:00,46.8,42.6,29.86,SSW,203,3.4,7.2,85,0.00,,,0.00,WUHU216HW,2013-04-24 09:48:00,
2013-04-24 05:51:00,46.6,42.4,29.86,SW,225,4.3,7.2,85,0.00,,,0.00,WUHU216HW,2013-04-24 09:51:00,
2013-04-24 05:52:00,46.6,42.4,29.86,SW,225,3.8,7.2,85,0.00,,,0.00,WUHU216HW,2013-04-24 09:52:00,
2013-04-24 05:54:00,46.4,42.2,29.86,SW,225,3.8,5.1,85,0.00,,,0.00,WUHU216HW,2013-04-24 09:54:00,
2013-04-24 05:56:00,46.4,42.5,29.86,WSW,248,3.6,4.7,86,0.00,,,0.00,WUHU216HW,2013-04-24 09:56:00,
2013-04-24 05:57:00,46.4,42.5,29.86,WSW,248,3.6,4.7,86,0.00,,,0.00,WUHU216HW,2013-04-24 09:57:00,
2013-04-24 05:58:00,46.4,42.5,29.85,WSW,248,4.0,4.5,86,0.00,,,0.00,WUHU216HW,2013-04-24 09:58:00,
2013-04-24 05:59:00,46.4,42.5,29.86,WSW,248,3.4,4.5,86,0.00,,,0.00,WUHU216HW,2013-04-24 09:59:00,
2013-04-24 06:02:00,46.8,42.8,29.86,WSW,248,4.5,4.5,86,0.00,,,0.00,WUHU216HW,2013-04-24 10:02:00,
2013-04-24 06:04:00,47.2,42.9,29.86,SW,225,4.9,4.9,85,0.00,,,0.00,WUHU216HW,2013-04-24 10:04:00,
2013-04-24 06:08:00,47.5,43.2,29.86,WSW,248,5.8,6.3,85,0.00,,,0.00,WUHU216HW,2013-04-24 10:08:00,
2013-04-24 06:09:00,47.5,43.2,29.86,WSW,248,4.7,6.3,85,0.00,,,0.00,WUHU216HW,2013-04-24 10:09:00,
2013-04-24 06:10:00,47.7,43.4,29.86,SW,225,4.9,6.3,85,0.00,,,0.00,WUHU216HW,2013-04-24 10:10:00,
2013-04-24 06:13:00,47.7,43.1,29.86,WNW,293,2.9,6.3,84,0.00,,,0.00,WUHU216HW,2013-04-24 10:13:00,
2013-04-24 06:14:00,47.7,43.1,29.86,West,270,2.5,6.3,84,0.00,,,0.00,WUHU216HW,2013-04-24 10:14:00,
2013-04-24 06:15:00,47.5,42.9,29.86,West,270,2.7,6.3,84,0.00,,,0.00,WUHU216HW,2013-04-24 10:15:00,
2013-04-24 06:19:00,47.3,42.8,29.86,West,270,4.5,4.9,84,0.00,,,0.00,WUHU216HW,2013-04-24 10:19:00,
2013-04-24 06:20:00,47.3,42.8,29.86,West,270,5.6,5.6,84,0.00,,,0.00,WUHU216HW,2013-04-24 10:20:00,
2013-04-24 06:21:00,47.3,42.8,29.86,West,270,5.6,5.6,84,0.00,,,0.00,WUHU216HW,2013-04-24 10:21:00,
2013-04-24 06:25:00,47.2,42.6,29.86,West,270,4.7,6.0,84,0.00,,,0.00,WUHU216HW,2013-04-24 10:25:00,
2013-04-24 06:26:00,47.2,42.6,29.86,West,270,4.5,6.0,84,0.00,,,0.00,WUHU216HW,2013-04-24 10:26:00,
2013-04-24 06:27:00,47.2,42.9,29.86,West,270,4.5,6.0,85,0.00,,,0.00,WUHU216HW,2013-04-24 10:27:00,
2013-04-24 06:30:00,47.2,42.9,29.86,West,270,4.9,6.0,85,0.00,,,0.00,WUHU216HW,2013-04-24 10:30:00,
2013-04-24 06:31:00,47.3,43.0,29.86,WNW,293,3.8,6.0,85,0.00,,,0.00,WUHU216HW,2013-04-24 10:31:00,
2013-04-24 06:32:00,47.3,43.0,29.86,WNW,293,4.0,4.9,85,0.00,,,0.00,WUHU216HW,2013-04-24 10:32:00,
2013-04-24 06:33:00,47.3,43.0,29.86,West,270,4.0,4.9,85,0.00,,,0.00,WUHU216HW,2013-04-24 10:33:00,
2013-04-24 06:34:00,47.3,43.0,29.86,WSW,248,3.1,4.9,85,0.00,,,0.00,WUHU216HW,2013-04-24 10:34:00,
2013-04-24 06:36:00,47.5,43.2,29.86,WNW,293,2.5,4.9,85,0.00,,,0.00,WUHU216HW,2013-04-24 10:36:00,
2013-04-24 06:38:00,47.5,43.2,29.86,WNW,293,4.0,4.9,85,0.00,,,0.00,WUHU216HW,2013-04-24 10:38:00,
2013-04-24 06:39:00,47.5,42.9,29.86,West,270,4.0,4.9,84,0.00,,,0.00,WUHU216HW,2013-04-24 10:39:00,
2013-04-24 06:40:00,47.5,42.9,29.86,West,270,4.0,4.9,84,0.00,,,0.00,WUHU216HW,2013-04-24 10:40:00,
2013-04-24 06:41:00,47.7,43.1,29.86,West,270,4.0,4.0,84,0.00,,,0.00,WUHU216HW,2013-04-24 10:41:00,
2013-04-24 06:43:00,47.7,43.1,29.86,WSW,248,3.8,5.1,84,0.00,,,0.00,WUHU216HW,2013-04-24 10:43:00,
2013-04-24 06:45:00,47.9,43.3,29.86,West,270,3.6,5.1,84,0.00,,,0.00,WUHU216HW,2013-04-24 10:45:00,
2013-04-24 06:46:00,47.9,43.3,29.86,West,270,4.0,5.1,84,0.00,,,0.00,WUHU216HW,2013-04-24 10:46:00,
2013-04-24 06:49:00,48.1,43.5,29.86,West,270,3.1,5.1,84,0.00,,,0.00,WUHU216HW,2013-04-24 10:49:00,
2013-04-24 06:50:00,48.1,43.5,29.86,WNW,293,3.4,5.1,84,0.00,,,0.00,WUHU216HW,2013-04-24 10:50:00,
2013-04-24 06:51:00,48.2,43.3,29.86,West,270,3.6,4.3,83,0.00,,,0.00,WUHU216HW,2013-04-24 10:51:00,
2013-04-24 06:52:00,48.2,43.3,29.86,West,270,3.6,4.3,83,0.00,,,0.00,WUHU216HW,2013-04-24 10:52:00,
2013-04-24 06:54:00,48.2,43.3,29.86,WNW,293,4.5,4.5,83,0.00,,,0.00,WUHU216HW,2013-04-24 10:54:00,
2013-04-24 06:57:00,48.4,43.5,29.86,West,270,3.4,4.5,83,0.00,,,0.00,WUHU216HW,2013-04-24 10:57:00,
2013-04-24 06:58:00,48.6,43.7,29.86,West,270,3.6,4.5,83,0.00,,,0.00,WUHU216HW,2013-04-24 10:58:00,
2013-04-24 06:59:00,48.6,43.7,29.86,West,270,3.6,4.5,83,0.00,,,0.00,WUHU216HW,2013-04-24 10:59:00,
2013-04-24 07:00:00,48.6,43.7,29.86,WSW,248,4.3,4.5,83,0.00,,,0.00,WUHU216HW,2013-04-24 11:00:00,
2013-04-24 07:02:00,48.6,43.7,29.86,WNW,293,3.4,4.5,83,0.00,,,0.00,WUHU216HW,2013-04-24 11:02:00,
2013-04-24 07:03:00,48.8,43.8,29.86,WSW,248,4.0,4.3,83,0.00,,,0.00,WUHU216HW,2013-04-24 11:03:00,
2013-04-24 07:04:00,48.8,43.8,29.86,West,270,3.8,4.3,83,0.00,,,0.00,WUHU216HW,2013-04-24 11:04:00,
2013-04-24 07:06:00,49.0,44.3,29.86,West,270,4.7,4.7,84,0.00,,,0.00,WUHU216HW,2013-04-24 11:06:00,
2013-04-24 07:08:00,49.0,44.0,29.86,WNW,293,4.3,4.7,83,0.00,,,0.00,WUHU216HW,2013-04-24 11:08:00,
2013-04-24 07:09:00,49.1,44.1,29.86,West,270,3.8,4.7,83,0.00,,,0.00,WUHU216HW,2013-04-24 11:09:00,
2013-04-24 07:10:00,49.3,44.3,29.86,WNW,293,2.9,4.7,83,0.00,,,0.00,WUHU216HW,2013-04-24 11:10:00,
2013-04-24 07:11:00,49.3,44.3,29.86,West,270,3.6,4.7,83,0.00,,,0.00,WUHU216HW,2013-04-24 11:11:00,
2013-04-24 07:13:00,49.5,44.5,29.86,WNW,293,2.5,4.7,83,0.00,,,0.00,WUHU216HW,2013-04-24 11:13:00,
2013-04-24 07:14:00,49.5,44.5,29.86,West,270,3.1,4.7,83,0.00,,,0.00,WUHU216HW,2013-04-24 11:14:00,
2013-04-24 07:15:00,49.5,44.2,29.86,WNW,293,4.0,4.7,82,0.00,,,0.00,WUHU216HW,2013-04-24 11:15:00,
2013-04-24 07:16:00,49.7,44.4,29.86,WNW,293,3.4,4.3,82,0.00,,,0.00,WUHU216HW,2013-04-24 11:16:00,
2013-04-24 07:19:00,49.9,44.6,29.86,WNW,293,2.7,4.3,82,0.00,,,0.00,WUHU216HW,2013-04-24 11:19:00,
2013-04-24 07:20:00,49.9,44.6,29.86,WNW,293,2.7,4.3,82,0.00,,,0.00,WUHU216HW,2013-04-24 11:20:00,
2013-04-24 07:21:00,50.0,44.7,29.86,WSW,248,2.7,4.3,82,0.00,,,0.00,WUHU216HW,2013-04-24 11:21:00,
2013-04-24 07:24:00,50.2,44.9,29.86,WNW,293,2.9,4.0,82,0.00,,,0.00,WUHU216HW,2013-04-24 11:24:00,
2013-04-24 07:25:00,50.2,44.9,29.86,WNW,293,2.9,4.0,82,0.00,,,0.00,WUHU216HW,2013-04-24 11:25:00,
2013-04-24 07:26:00,50.4,45.1,29.86,West,270,2.0,3.4,82,0.00,,,0.00,WUHU216HW,2013-04-24 11:26:00,
2013-04-24 07:27:00,50.4,45.1,29.86,West,270,2.0,3.4,82,0.00,,,0.00,WUHU216HW,2013-04-24 11:27:00,
2013-04-24 07:30:00,50.8,45.1,29.86,WNW,293,1.8,3.1,81,0.00,,,0.00,WUHU216HW,2013-04-24 11:30:00,
2013-04-24 07:31:00,50.8,45.1,29.86,WNW,293,1.8,3.1,81,0.00,,,0.00,WUHU216HW,2013-04-24 11:31:00,
2013-04-24 07:32:00,51.1,45.2,29.86,WSW,248,3.6,3.6,80,0.00,,,0.00,WUHU216HW,2013-04-24 11:32:00,
2013-04-24 07:36:00,51.5,45.5,29.86,WNW,293,2.5,3.6,80,0.00,,,0.00,WUHU216HW,2013-04-24 11:36:00,
2013-04-24 07:37:00,51.7,45.7,29.86,West,270,3.6,3.6,80,0.00,,,0.00,WUHU216HW,2013-04-24 11:37:00,
2013-04-24 07:38:00,51.8,45.9,29.86,West,270,1.8,3.6,80,0.00,,,0.00,WUHU216HW,2013-04-24 11:38:00,
2013-04-24 07:42:00,52.6,46.6,29.86,West,270,2.5,3.6,80,0.00,,,0.00,WUHU216HW,2013-04-24 11:42:00,
2013-04-24 07:43:00,52.9,47.0,29.86,WNW,293,1.1,3.6,80,0.00,,,0.00,WUHU216HW,2013-04-24 11:43:00,
2013-04-24 07:48:00,54.2,47.5,29.86,WNW,293,1.6,2.7,78,0.00,,,0.00,WUHU216HW,2013-04-24 11:48:00,
2013-04-24 07:49:00,54.2,47.5,29.86,WNW,293,1.6,2.7,78,0.00,,,0.00,WUHU216HW,2013-04-24 11:49:00,
2013-04-24 07:50:00,54.4,47.3,29.86,WNW,293,2.9,2.9,77,0.00,,,0.00,WUHU216HW,2013-04-24 11:50:00,
2013-04-24 07:54:00,54.7,47.6,29.86,WNW,293,1.1,2.9,77,0.00,,,0.00,WUHU216HW,2013-04-24 11:54:00,
2013-04-24 07:55:00,55.1,48.3,29.86,West,270,2.0,2.9,78,0.00,,,0.00,WUHU216HW,2013-04-24 11:55:00,
2013-04-24 07:56:00,55.1,48.3,29.86,West,270,2.0,2.9,78,0.00,,,0.00,WUHU216HW,2013-04-24 11:56:00,
2013-04-24 07:59:00,55.6,47.4,29.86,West,270,1.1,3.4,74,0.00,,,0.00,WUHU216HW,2013-04-24 11:59:00,
2013-04-24 08:00:00,55.4,47.6,29.86,WNW,293,1.1,3.4,75,0.00,,,0.00,WUHU216HW,2013-04-24 12:00:00,
2013-04-24 08:01:00,55.4,47.6,29.86,WNW,293,2.5,3.4,75,0.00,,,0.00,WUHU216HW,2013-04-24 12:01:00,
2013-04-24 08:02:00,55.4,47.6,29.86,West,270,1.3,3.4,75,0.00,,,0.00,WUHU216HW,2013-04-24 12:02:00,
2013-04-24 08:05:00,55.6,48.2,29.86,West,270,1.8,3.4,76,0.00,,,0.00,WUHU216HW,2013-04-24 12:05:00,
2013-04-24 08:06:00,55.8,48.3,29.86,West,270,1.6,2.5,76,0.00,,,0.00,WUHU216HW,2013-04-24 12:06:00,
2013-04-24 08:07:00,55.8,48.3,29.86,West,270,1.8,2.5,76,0.00,,,0.00,WUHU216HW,2013-04-24 12:07:00,
2013-04-24 08:10:00,56.2,48.6,29.86,WNW,293,2.5,2.5,76,0.00,,,0.00,WUHU216HW,2013-04-24 12:10:00,
2013-04-24 08:12:00,56.3,48.8,29.86,West,270,1.8,2.5,76,0.00,,,0.00,WUHU216HW,2013-04-24 12:12:00,
2013-04-24 08:13:00,56.3,48.8,29.86,West,270,1.6,2.5,76,0.00,,,0.00,WUHU216HW,2013-04-24 12:13:00,
2013-04-24 08:17:00,56.9,49.0,29.86,WNW,293,2.0,2.5,75,0.00,,,0.00,WUHU216HW,2013-04-24 12:17:00,
2013-04-24 08:18:00,56.9,49.0,29.86,West,270,2.0,2.5,75,0.00,,,0.00,WUHU216HW,2013-04-24 12:18:00,
2013-04-24 08:19:00,57.2,49.0,29.86,SW,225,1.1,2.5,74,0.00,,,0.00,WUHU216HW,2013-04-24 12:19:00,
2013-04-24 08:23:00,56.3,48.2,29.85,SW,225,2.0,3.8,74,0.00,,,0.00,WUHU216HW,2013-04-24 12:23:00,
2013-04-24 08:24:00,56.2,48.3,29.85,West,270,2.2,3.8,75,0.00,,,0.00,WUHU216HW,2013-04-24 12:24:00,
2013-04-24 08:25:00,56.0,48.5,29.85,South,180,1.8,3.8,76,0.00,,,0.00,WUHU216HW,2013-04-24 12:25:00,
2013-04-24 08:28:00,55.4,48.0,29.85,SW,225,3.6,3.8,76,0.00,,,0.00,WUHU216HW,2013-04-24 12:28:00,
2013-04-24 08:29:00,55.4,48.0,29.85,SW,225,3.6,3.8,76,0.00,,,0.00,WUHU216HW,2013-04-24 12:29:00,
2013-04-24 08:30:00,55.4,48.6,29.85,SW,225,3.1,3.6,78,0.00,,,0.00,WUHU216HW,2013-04-24 12:30:00,
2013-04-24 08:34:00,55.6,49.1,29.85,SW,225,3.6,3.6,79,0.00,,,0.00,WUHU216HW,2013-04-24 12:34:00,
2013-04-24 08:35:00,55.6,49.5,29.85,WSW,248,4.7,4.7,80,0.00,,,0.00,WUHU216HW,2013-04-24 12:35:00,
2013-04-24 08:36:00,55.8,49.3,29.85,SW,225,4.7,4.7,79,0.00,,,0.00,WUHU216HW,2013-04-24 12:36:00,
2013-04-24 08:39:00,56.0,49.5,29.85,SW,225,4.7,4.7,79,0.00,,,0.00,WUHU216HW,2013-04-24 12:39:00,
2013-04-24 08:40:00,56.2,49.7,29.85,SSW,203,2.9,4.7,79,0.00,,,0.00,WUHU216HW,2013-04-24 12:40:00,
2013-04-24 08:41:00,56.2,49.7,29.85,SSW,203,2.9,4.7,79,0.00,,,0.00,WUHU216HW,2013-04-24 12:41:00,
2013-04-24 08:45:00,56.7,49.9,29.85,SSW,203,5.4,8.3,78,0.00,,,0.00,WUHU216HW,2013-04-24 12:45:00,
2013-04-24 08:46:00,56.7,49.9,29.85,SSW,203,5.4,8.3,78,0.00,,,0.00,WUHU216HW,2013-04-24 12:46:00,
2013-04-24 08:47:00,57.1,50.6,29.85,SW,225,4.3,8.3,79,0.00,,,0.00,WUHU216HW,2013-04-24 12:47:00,
2013-04-24 08:50:00,57.2,49.7,29.84,SSW,203,4.0,8.3,76,0.00,,,0.00,WUHU216HW,2013-04-24 12:50:00,
2013-04-24 08:51:00,57.4,50.2,29.84,WSW,248,6.5,8.3,77,0.00,,,0.00,WUHU216HW,2013-04-24 12:51:00,
2013-04-24 08:52:00,57.4,50.2,29.84,SW,225,3.8,8.3,77,0.00,,,0.00,WUHU216HW,2013-04-24 12:52:00,
2013-04-24 08:53:00,57.4,50.2,29.84,SW,225,3.8,8.3,77,0.00,,,0.00,WUHU216HW,2013-04-24 12:53:00,
2013-04-24 08:56:00,58.0,50.8,29.84,SW,225,5.1,6.9,77,0.00,,,0.00,WUHU216HW,2013-04-24 12:56:00,
2013-04-24 08:57:00,58.0,50.8,29.84,WSW,248,4.9,6.9,77,0.00,,,0.00,WUHU216HW,2013-04-24 12:57:00,
2013-04-24 08:58:00,58.0,50.8,29.84,SW,225,5.4,6.5,77,0.00,,,0.00,WUHU216HW,2013-04-24 12:58:00,
2013-04-24 08:59:00,58.0,50.0,29.84,SSW,203,2.5,6.5,75,0.00,,,0.00,WUHU216HW,2013-04-24 12:59:00,
2013-04-24 09:01:00,58.5,50.9,29.84,WNW,293,5.4,6.3,76,0.00,,,0.00,WUHU216HW,2013-04-24 13:01:00,
2013-04-24 09:02:00,58.7,51.1,29.84,SW,225,3.8,6.3,76,0.00,,,0.00,WUHU216HW,2013-04-24 13:02:00,
2013-04-24 09:03:00,58.9,50.9,29.84,SW,225,4.0,6.3,75,0.00,,,0.00,WUHU216HW,2013-04-24 13:03:00,
2013-04-24 09:05:00,59.0,50.4,29.84,SW,225,5.6,6.3,73,0.00,,,0.00,WUHU216HW,2013-04-24 13:05:00,
2013-04-24 09:07:00,59.0,50.8,29.84,WSW,248,4.7,6.3,74,0.00,,,0.00,WUHU216HW,2013-04-24 13:07:00,
2013-04-24 09:08:00,59.2,51.7,29.84,WSW,248,3.6,6.3,76,0.00,,,0.00,WUHU216HW,2013-04-24 13:08:00,
2013-04-24 09:09:00,59.4,51.1,29.84,WNW,293,4.5,6.3,74,0.00,,,0.00,WUHU216HW,2013-04-24 13:09:00,
2013-04-24 09:11:00,59.4,51.1,29.84,WNW,293,4.5,5.6,74,0.00,,,0.00,WUHU216HW,2013-04-24 13:11:00,
2013-04-24 09:12:00,59.9,51.3,29.83,WSW,248,6.9,6.9,73,0.00,,,0.00,WUHU216HW,2013-04-24 13:12:00,
2013-04-24 09:14:00,60.1,50.8,29.83,SW,225,8.5,9.6,71,0.00,,,0.00,WUHU216HW,2013-04-24 13:14:00,
2013-04-24 09:15:00,60.1,50.4,29.83,WSW,248,9.8,9.8,70,0.00,,,0.00,WUHU216HW,2013-04-24 13:15:00,
2013-04-24 09:16:00,60.1,51.5,29.83,SW,225,7.6,9.8,73,0.00,,,0.00,WUHU216HW,2013-04-24 13:16:00,
2013-04-24 09:18:00,60.3,50.9,29.83,SW,225,6.9,9.8,71,0.00,,,0.00,WUHU216HW,2013-04-24 13:18:00,
2013-04-24 09:20:00,60.3,51.7,29.83,SW,225,8.3,9.8,73,0.00,,,0.00,WUHU216HW,2013-04-24 13:20:00,
2013-04-24 09:22:00,60.3,50.6,29.82,SW,225,6.9,9.8,70,0.00,,,0.00,WUHU216HW,2013-04-24 13:22:00,
2013-04-24 09:24:00,60.5,51.1,29.82,South,180,6.0,10.1,71,0.00,,,0.00,WUHU216HW,2013-04-24 13:24:00,
2013-04-24 09:25:00,60.5,51.1,29.82,SSW,203,8.7,10.1,71,0.00,,,0.00,WUHU216HW,2013-04-24 13:25:00,
2013-04-24 09:26:00,60.5,51.1,29.82,SSW,203,8.7,10.1,71,0.00,,,0.00,WUHU216HW,2013-04-24 13:26:00,
2013-04-24 09:27:00,60.8,52.2,29.82,SW,225,7.2,10.1,73,0.00,,,0.00,WUHU216HW,2013-04-24 13:27:00,
2013-04-24 09:30:00,61.0,51.3,29.82,SW,225,3.4,10.1,70,0.00,,,0.00,WUHU216HW,2013-04-24 13:30:00,
2013-04-24 09:31:00,61.0,51.3,29.82,SW,225,3.4,10.1,70,0.00,,,0.00,WUHU216HW,2013-04-24 13:31:00,
2013-04-24 09:32:00,61.2,51.0,29.82,SSW,203,5.8,10.1,69,0.00,,,0.00,WUHU216HW,2013-04-24 13:32:00,
2013-04-24 09:33:00,61.2,51.0,29.82,South,180,8.1,8.7,69,0.00,,,0.00,WUHU216HW,2013-04-24 13:33:00,
2013-04-24 09:34:00,61.2,51.0,29.82,South,180,6.3,8.7,69,0.00,,,0.00,WUHU216HW,2013-04-24 13:34:00,
2013-04-24 09:36:00,61.2,52.2,29.82,SSW,203,5.1,8.1,72,0.00,,,0.00,WUHU216HW,2013-04-24 13:36:00,
2013-04-24 09:38:00,61.6,51.4,29.82,SW,225,11.4,11.4,69,0.00,,,0.00,WUHU216HW,2013-04-24 13:38:00,
2013-04-24 09:39:00,61.4,51.2,29.82,SSW,203,9.4,11.4,69,0.00,,,0.00,WUHU216HW,2013-04-24 13:39:00,
2013-04-24 09:40:00,61.4,51.2,29.82,SSW,203,9.4,11.4,69,0.00,,,0.00,WUHU216HW,2013-04-24 13:40:00,
2013-04-24 09:41:00,61.2,51.0,29.82,SSW,203,6.3,11.4,69,0.00,,,0.00,WUHU216HW,2013-04-24 13:41:00,
2013-04-24 09:43:00,61.2,51.0,29.82,SSW,203,6.9,11.4,69,0.00,,,0.00,WUHU216HW,2013-04-24 13:43:00,
2013-04-24 09:44:00,61.4,51.6,29.82,WSW,248,9.8,11.4,70,0.00,,,0.00,WUHU216HW,2013-04-24 13:44:00,
2013-04-24 09:45:00,61.4,51.2,29.82,SW,225,11.2,11.4,69,0.00,,,0.00,WUHU216HW,2013-04-24 13:45:00,
2013-04-24 09:48:00,61.6,51.4,29.82,WSW,248,11.9,11.9,69,0.00,,,0.00,WUHU216HW,2013-04-24 13:48:00,
2013-04-24 09:50:00,61.6,51.4,29.82,SW,225,7.8,12.1,69,0.00,,,0.00,WUHU216HW,2013-04-24 13:50:00,
2013-04-24 09:52:00,61.6,51.8,29.82,SW,225,10.5,12.1,70,0.00,,,0.00,WUHU216HW,2013-04-24 13:52:00,
2013-04-24 09:53:00,61.7,51.9,29.82,SW,225,9.2,12.1,70,0.00,,,0.00,WUHU216HW,2013-04-24 13:53:00,
2013-04-24 09:55:00,61.7,51.5,29.82,SW,225,12.1,12.1,69,0.00,,,0.00,WUHU216HW,2013-04-24 13:55:00,
2013-04-24 09:57:00,61.9,51.7,29.82,SSW,203,10.5,12.1,69,0.00,,,0.00,WUHU216HW,2013-04-24 13:57:00,
2013-04-24 09:58:00,62.1,51.4,29.82,SW,225,11.4,12.1,68,0.00,,,0.00,WUHU216HW,2013-04-24 13:58:00,
2013-04-24 09:59:00,62.1,51.8,29.82,SW,225,10.1,12.1,69,0.00,,,0.00,WUHU216HW,2013-04-24 13:59:00,
2013-04-24 10:00:00,62.3,52.4,29.82,SW,225,10.5,12.1,70,0.00,,,0.00,WUHU216HW,2013-04-24 14:00:00,
2013-04-24 10:02:00,62.6,52.7,29.81,WSW,248,8.5,12.1,70,0.00,,,0.00,WUHU216HW,2013-04-24 14:02:00,
2013-04-24 10:04:00,62.6,51.9,29.82,SW,225,11.4,12.1,68,0.00,,,0.00,WUHU216HW,2013-04-24 14:04:00,
2013-04-24 10:05:00,62.6,51.9,29.82,SW,225,11.4,12.1,68,0.00,,,0.00,WUHU216HW,2013-04-24 14:05:00,
2013-04-24 10:07:00,63.0,52.3,29.82,WSW,248,12.8,12.8,68,0.00,,,0.00,WUHU216HW,2013-04-24 14:07:00,
2013-04-24 10:09:00,63.2,52.0,29.81,SSE,158,6.7,12.8,67,0.00,,,0.00,WUHU216HW,2013-04-24 14:09:00,
2013-04-24 10:10:00,63.2,52.5,29.81,SW,225,6.9,12.8,68,0.00,,,0.00,WUHU216HW,2013-04-24 14:10:00,
2013-04-24 10:12:00,63.4,52.2,29.81,SSW,203,9.2,12.8,67,0.00,,,0.00,WUHU216HW,2013-04-24 14:12:00,
2013-04-24 10:15:00,63.4,52.7,29.81,SSW,203,4.0,12.8,68,0.00,,,0.00,WUHU216HW,2013-04-24 14:15:00,
2013-04-24 10:16:00,63.4,52.7,29.81,SSW,203,4.0,12.8,68,0.00,,,0.00,WUHU216HW,2013-04-24 14:16:00,
2013-04-24 10:17:00,63.7,51.7,29.81,SSW,203,10.7,10.7,65,0.00,,,0.00,WUHU216HW,2013-04-24 14:17:00,
2013-04-24 10:18:00,63.7,51.7,29.81,SSW,203,10.7,10.7,65,0.00,,,0.00,WUHU216HW,2013-04-24 14:18:00,
2013-04-24 10:20:00,64.3,52.7,29.81,SSW,203,7.2,10.7,66,0.00,,,0.00,WUHU216HW,2013-04-24 14:20:00,
2013-04-24 10:21:00,64.3,52.2,29.81,SSW,203,7.6,10.7,65,0.00,,,0.00,WUHU216HW,2013-04-24 14:21:00,
2013-04-24 10:22:00,64.3,52.2,29.81,South,180,4.5,10.7,65,0.00,,,0.00,WUHU216HW,2013-04-24 14:22:00,
2013-04-24 10:23:00,64.1,52.0,29.81,SSW,203,8.5,10.7,65,0.00,,,0.00,WUHU216HW,2013-04-24 14:23:00,
2013-04-24 10:26:00,64.1,52.0,29.81,SSE,158,6.0,10.7,65,0.00,,,0.00,WUHU216HW,2013-04-24 14:26:00,
2013-04-24 10:27:00,64.4,51.9,29.81,SW,225,10.3,10.3,64,0.00,,,0.00,WUHU216HW,2013-04-24 14:27:00,
2013-04-24 10:28:00,64.3,52.2,29.81,SW,225,8.7,10.3,65,0.00,,,0.00,WUHU216HW,2013-04-24 14:28:00,
2013-04-24 10:29:00,64.4,53.3,29.81,South,180,7.4,10.3,67,0.00,,,0.00,WUHU216HW,2013-04-24 14:29:00,
2013-04-24 10:33:00,65.2,52.7,29.80,South,180,3.4,10.3,64,0.00,,,0.00,WUHU216HW,2013-04-24 14:33:00,
2013-04-24 10:34:00,65.2,52.7,29.80,South,180,3.4,10.3,64,0.00,,,0.00,WUHU216HW,2013-04-24 14:34:00,
2013-04-24 10:35:00,65.9,53.7,29.80,SSW,203,8.9,10.3,65,0.00,,,0.00,WUHU216HW,2013-04-24 14:35:00,
2013-04-24 10:39:00,66.1,53.5,29.80,SW,225,6.5,8.9,64,0.00,,,0.00,WUHU216HW,2013-04-24 14:39:00,
2013-04-24 10:41:00,65.9,52.5,29.80,SSW,203,7.6,8.9,62,0.00,,,0.00,WUHU216HW,2013-04-24 14:41:00,
2013-04-24 10:44:00,66.1,53.1,29.80,SSW,203,7.8,11.9,63,0.00,,,0.00,WUHU216HW,2013-04-24 14:44:00,
2013-04-24 10:45:00,66.1,53.1,29.80,SSW,203,7.8,11.9,63,0.00,,,0.00,WUHU216HW,2013-04-24 14:45:00,
2013-04-24 10:47:00,66.4,53.0,29.80,South,180,6.9,11.9,62,0.00,,,0.00,WUHU216HW,2013-04-24 14:47:00,
2013-04-24 10:49:00,66.6,52.4,29.80,South,180,8.1,11.9,60,0.00,,,0.00,WUHU216HW,2013-04-24 14:49:00,
2013-04-24 10:50:00,66.4,51.7,29.80,SSW,203,8.5,11.9,59,0.00,,,0.00,WUHU216HW,2013-04-24 14:50:00,
2013-04-24 10:51:00,66.6,52.7,29.80,SSW,203,6.7,11.9,61,0.00,,,0.00,WUHU216HW,2013-04-24 14:51:00,
2013-04-24 10:52:00,66.6,52.4,29.80,SSE,158,10.3,11.6,60,0.00,,,0.00,WUHU216HW,2013-04-24 14:52:00,
2013-04-24 10:54:00,66.8,51.6,29.80,SSE,158,11.2,11.6,58,0.00,,,0.00,WUHU216HW,2013-04-24 14:54:00,
2013-04-24 10:55:00,66.6,51.4,29.80,SSW,203,13.0,13.0,58,0.00,,,0.00,WUHU216HW,2013-04-24 14:55:00,
2013-04-24 10:56:00,66.6,51.8,29.80,South,180,18.6,18.6,59,0.00,,,0.00,WUHU216HW,2013-04-24 14:56:00,
2013-04-24 10:57:00,66.6,51.8,29.80,South,180,7.4,18.6,59,0.00,,,0.00,WUHU216HW,2013-04-24 14:57:00,
2013-04-24 10:59:00,67.0,53.1,29.80,South,180,10.5,18.6,61,0.00,,,0.00,WUHU216HW,2013-04-24 14:59:00,
2013-04-24 11:00:00,67.0,52.7,29.79,SSE,158,7.4,18.6,60,0.00,,,0.00,WUHU216HW,2013-04-24 15:00:00,
2013-04-24 11:01:00,67.1,51.8,29.80,SSE,158,7.4,18.6,58,0.00,,,0.00,WUHU216HW,2013-04-24 15:01:00,
2013-04-24 11:02:00,67.1,51.8,29.80,SSE,158,7.4,18.6,58,0.00,,,0.00,WUHU216HW,2013-04-24 15:02:00,
2013-04-24 11:03:00,67.1,51.8,29.80,SSE,158,7.4,18.6,58,0.00,,,0.00,WUHU216HW,2013-04-24 15:03:00,
2013-04-24 11:05:00,67.1,51.8,29.80,SSE,158,7.4,18.6,58,0.00,,,0.00,WUHU216HW,2013-04-24 15:05:00,
2013-04-24 11:09:00,67.1,51.8,29.80,SSE,158,7.4,10.5,58,0.00,,,0.00,WUHU216HW,2013-04-24 15:09:00,
2013-04-24 11:10:00,67.1,51.8,29.80,SSE,158,7.4,7.4,58,0.00,,,0.00,WUHU216HW,2013-04-24 15:10:00,
2013-04-24 11:31:00,69.5,52.6,29.78,South,180,6.7,6.7,55,0.00,,,0.00,WUHU216HW,2013-04-24 15:31:00,
2013-04-24 11:32:00,69.5,51.6,29.78,SW,225,7.6,7.6,53,0.00,,,0.00,WUHU216HW,2013-04-24 15:32:00,
2013-04-24 11:36:00,69.8,52.4,29.78,SSE,158,6.9,11.2,54,0.00,,,0.00,WUHU216HW,2013-04-24 15:36:00,
2013-04-24 11:37:00,69.8,51.0,29.78,South,180,14.1,14.1,51,0.00,,,0.00,WUHU216HW,2013-04-24 15:37:00,
2013-04-24 11:38:00,69.8,53.5,29.78,SSW,203,7.4,14.1,56,0.00,,,0.00,WUHU216HW,2013-04-24 15:38:00,
2013-04-24 11:42:00,70.2,51.8,29.77,SE,135,8.3,14.1,52,0.00,,,0.00,WUHU216HW,2013-04-24 15:42:00,
2013-04-24 11:43:00,70.2,51.8,29.77,South,180,6.7,14.1,52,0.00,,,0.00,WUHU216HW,2013-04-24 15:43:00,
2013-04-24 11:44:00,70.2,52.7,29.77,SSW,203,4.0,14.1,54,0.00,,,0.00,WUHU216HW,2013-04-24 15:44:00,
2013-04-24 11:48:00,70.9,51.8,29.76,SSW,203,12.3,12.3,51,0.00,,,0.00,WUHU216HW,2013-04-24 15:48:00,
2013-04-24 11:49:00,70.7,52.2,29.77,SSW,203,9.8,12.3,52,0.00,,,0.00,WUHU216HW,2013-04-24 15:49:00,
2013-04-24 11:50:00,70.7,52.2,29.77,SSW,203,9.8,12.3,52,0.00,,,0.00,WUHU216HW,2013-04-24 15:50:00,
2013-04-24 11:53:00,70.0,53.1,29.76,South,180,6.9,12.3,55,0.00,,,0.00,WUHU216HW,2013-04-24 15:53:00,
2013-04-24 11:54:00,70.0,53.1,29.76,South,180,6.9,12.3,55,0.00,,,0.00,WUHU216HW,2013-04-24 15:54:00,
2013-04-24 11:55:00,69.8,51.0,29.76,South,180,6.9,12.3,51,0.00,,,0.00,WUHU216HW,2013-04-24 15:55:00,
2013-04-24 11:59:00,69.8,51.9,29.76,South,180,5.4,11.4,53,0.00,,,0.00,WUHU216HW,2013-04-24 15:59:00,
2013-04-24 12:00:00,70.4,53.4,29.75,SSW,203,6.0,11.4,55,0.00,,,0.00,WUHU216HW,2013-04-24 16:00:00,
2013-04-24 12:01:00,70.6,51.6,29.76,SSW,203,10.5,11.4,51,0.00,,,0.00,WUHU216HW,2013-04-24 16:01:00,
2013-04-24 12:04:00,69.8,51.0,29.75,South,180,9.8,12.1,51,0.00,,,0.00,WUHU216HW,2013-04-24 16:04:00,
2013-04-24 12:05:00,69.8,51.4,29.75,SW,225,7.6,12.1,52,0.00,,,0.00,WUHU216HW,2013-04-24 16:05:00,
2013-04-24 12:06:00,69.8,51.4,29.75,SSW,203,9.8,12.1,52,0.00,,,0.00,WUHU216HW,2013-04-24 16:06:00,
2013-04-24 12:10:00,69.8,51.0,29.75,SW,225,9.2,12.1,51,0.00,,,0.00,WUHU216HW,2013-04-24 16:10:00,
2013-04-24 12:11:00,69.8,51.4,29.75,South,180,12.1,12.1,52,0.00,,,0.00,WUHU216HW,2013-04-24 16:11:00,
2013-04-24 12:12:00,69.8,51.4,29.75,SSW,203,9.8,12.1,52,0.00,,,0.00,WUHU216HW,2013-04-24 16:12:00,
2013-04-24 12:15:00,69.8,51.0,29.75,South,180,8.9,12.1,51,0.00,,,0.00,WUHU216HW,2013-04-24 16:15:00,
2013-04-24 12:16:00,69.8,51.0,29.75,South,180,8.9,12.1,51,0.00,,,0.00,WUHU216HW,2013-04-24 16:16:00,
2013-04-24 12:17:00,69.8,51.4,29.75,SSW,203,7.2,12.1,52,0.00,,,0.00,WUHU216HW,2013-04-24 16:17:00,
2013-04-24 12:18:00,69.7,51.2,29.75,SSW,203,8.3,12.1,52,0.00,,,0.00,WUHU216HW,2013-04-24 16:18:00,
2013-04-24 12:21:00,70.0,52.1,29.75,SSE,158,7.6,12.1,53,0.00,,,0.00,WUHU216HW,2013-04-24 16:21:00,
2013-04-24 12:22:00,70.0,52.1,29.75,SSE,158,7.6,12.1,53,0.00,,,0.00,WUHU216HW,2013-04-24 16:22:00,
2013-04-24 12:23:00,70.9,52.9,29.75,SW,225,12.5,12.5,53,0.00,,,0.00,WUHU216HW,2013-04-24 16:23:00,
2013-04-24 12:25:00,71.1,53.0,29.75,SSW,203,10.1,12.5,53,0.00,,,0.00,WUHU216HW,2013-04-24 16:25:00,
2013-04-24 12:27:00,71.3,51.7,29.74,South,180,7.8,12.5,50,0.00,,,0.00,WUHU216HW,2013-04-24 16:27:00,
2013-04-24 12:28:00,71.5,52.8,29.74,South,180,11.4,12.5,52,0.00,,,0.00,WUHU216HW,2013-04-24 16:28:00,
2013-04-24 12:29:00,71.5,52.8,29.74,South,180,11.4,12.5,52,0.00,,,0.00,WUHU216HW,2013-04-24 16:29:00,
2013-04-24 12:31:00,71.8,53.7,29.74,South,180,10.3,12.5,53,0.00,,,0.00,WUHU216HW,2013-04-24 16:31:00,
2013-04-24 12:33:00,71.8,53.7,29.74,South,180,10.3,11.4,53,0.00,,,0.00,WUHU216HW,2013-04-24 16:33:00,
2013-04-24 12:34:00,71.8,53.7,29.74,South,180,10.3,11.4,53,0.00,,,0.00,WUHU216HW,2013-04-24 16:34:00,
2013-04-24 12:35:00,71.8,53.7,29.74,South,180,10.3,11.4,53,0.00,,,0.00,WUHU216HW,2013-04-24 16:35:00,
2013-04-24 12:36:00,71.8,53.7,29.74,South,180,10.3,11.4,53,0.00,,,0.00,WUHU216HW,2013-04-24 16:36:00,
2013-04-24 12:37:00,71.8,53.7,29.74,South,180,10.3,11.4,53,0.00,,,0.00,WUHU216HW,2013-04-24 16:37:00,
2013-04-24 12:39:00,71.8,53.7,29.74,South,180,10.3,10.3,53,0.00,,,0.00,WUHU216HW,2013-04-24 16:39:00,
2013-04-24 12:40:00,71.8,53.7,29.74,South,180,10.3,10.3,53,0.00,,,0.00,WUHU216HW,2013-04-24 16:40:00,
2013-04-24 13:00:00,72.7,52.4,29.73,SSE,158,15.9,15.9,49,0.00,,,0.00,WUHU216HW,2013-04-24 17:00:00,
2013-04-24 13:01:00,72.5,52.8,29.72,SE,135,13.6,15.9,50,0.00,,,0.00,WUHU216HW,2013-04-24 17:01:00,
2013-04-24 13:02:00,72.5,52.8,29.72,South,180,8.5,15.9,50,0.00,,,0.00,WUHU216HW,2013-04-24 17:02:00,
2013-04-24 13:05:00,72.5,54.8,29.72,SSW,203,6.7,15.9,54,0.00,,,0.00,WUHU216HW,2013-04-24 17:05:00,
2013-04-24 13:06:00,72.7,54.0,29.72,SSE,158,7.6,15.9,52,0.00,,,0.00,WUHU216HW,2013-04-24 17:06:00,
2013-04-24 13:07:00,72.9,54.2,29.72,SSW,203,6.9,15.9,52,0.00,,,0.00,WUHU216HW,2013-04-24 17:07:00,
2013-04-24 13:11:00,72.9,52.6,29.72,South,180,11.9,13.4,49,0.00,,,0.00,WUHU216HW,2013-04-24 17:11:00,
2013-04-24 13:12:00,72.9,53.6,29.73,SSW,203,13.2,13.4,51,0.00,,,0.00,WUHU216HW,2013-04-24 17:12:00,
2013-04-24 13:16:00,73.1,52.1,29.72,SSW,203,9.8,13.2,48,0.00,,,0.00,WUHU216HW,2013-04-24 17:16:00,
2013-04-24 13:17:00,73.1,52.1,29.72,SSW,203,9.8,13.2,48,0.00,,,0.00,WUHU216HW,2013-04-24 17:17:00,
2013-04-24 13:18:00,73.1,52.1,29.72,SSW,203,6.3,13.2,48,0.00,,,0.00,WUHU216HW,2013-04-24 17:18:00,
2013-04-24 13:22:00,73.3,52.3,29.72,SSW,203,10.1,13.0,48,0.00,,,0.00,WUHU216HW,2013-04-24 17:22:00,
2013-04-24 13:23:00,73.4,53.6,29.72,SSE,158,9.6,12.8,50,0.00,,,0.00,WUHU216HW,2013-04-24 17:23:00,
2013-04-24 13:24:00,73.4,53.6,29.72,SSE,158,5.4,12.8,50,0.00,,,0.00,WUHU216HW,2013-04-24 17:24:00,
2013-04-24 13:27:00,73.3,52.9,29.72,SE,135,8.3,13.2,49,0.00,,,0.00,WUHU216HW,2013-04-24 17:27:00,
2013-04-24 13:28:00,73.3,52.9,29.72,South,180,11.4,13.2,49,0.00,,,0.00,WUHU216HW,2013-04-24 17:28:00,
2013-04-24 13:29:00,73.1,52.1,29.72,South,180,15.2,15.7,48,0.00,,,0.00,WUHU216HW,2013-04-24 17:29:00,
2013-04-24 13:30:00,73.1,52.8,29.72,SSW,203,15.7,15.7,49,0.00,,,0.00,WUHU216HW,2013-04-24 17:30:00,
2013-04-24 13:33:00,73.1,52.8,29.72,SSW,203,10.3,15.7,49,0.00,,,0.00,WUHU216HW,2013-04-24 17:33:00,
2013-04-24 13:34:00,73.6,54.4,29.72,South,180,8.1,15.7,51,0.00,,,0.00,WUHU216HW,2013-04-24 17:34:00,
2013-04-24 13:35:00,73.6,54.4,29.72,South,180,8.1,15.7,51,0.00,,,0.00,WUHU216HW,2013-04-24 17:35:00,
2013-04-24 13:38:00,73.8,53.4,29.72,SSW,203,9.2,15.7,49,0.00,,,0.00,WUHU216HW,2013-04-24 17:38:00,
2013-04-24 13:39:00,73.8,54.0,29.72,South,180,12.3,15.7,50,0.00,,,0.00,WUHU216HW,2013-04-24 17:39:00,
2013-04-24 13:40:00,73.8,54.0,29.72,South,180,12.3,15.7,50,0.00,,,0.00,WUHU216HW,2013-04-24 17:40:00,
2013-04-24 13:44:00,73.8,53.4,29.71,SSW,203,13.9,15.9,49,0.00,,,0.00,WUHU216HW,2013-04-24 17:44:00,
2013-04-24 13:45:00,73.6,53.2,29.72,SSW,203,11.4,15.9,49,0.00,,,0.00,WUHU216HW,2013-04-24 17:45:00,
2013-04-24 13:46:00,73.6,54.4,29.72,South,180,8.7,15.9,51,0.00,,,0.00,WUHU216HW,2013-04-24 17:46:00,
2013-04-24 13:48:00,73.6,52.7,29.72,South,180,8.7,15.9,48,0.00,,,0.00,WUHU216HW,2013-04-24 17:48:00,
2013-04-24 13:51:00,73.6,53.8,29.72,SSW,203,11.6,15.9,50,0.00,,,0.00,WUHU216HW,2013-04-24 17:51:00,
2013-04-24 13:54:00,74.5,54.1,29.72,SSW,203,12.1,14.3,49,0.00,,,0.00,WUHU216HW,2013-04-24 17:54:00,
2013-04-24 13:56:00,74.5,55.3,29.72,South,180,8.5,14.3,51,0.00,,,0.00,WUHU216HW,2013-04-24 17:56:00,
2013-04-24 13:57:00,74.5,54.7,29.72,South,180,12.5,14.3,50,0.00,,,0.00,WUHU216HW,2013-04-24 17:57:00,
2013-04-24 13:59:00,74.2,54.4,29.72,SSW,203,19.7,19.7,50,0.00,,,0.00,WUHU216HW,2013-04-24 17:59:00,
2013-04-24 14:01:00,74.2,54.4,29.72,South,180,13.4,19.7,50,0.00,,,0.00,WUHU216HW,2013-04-24 18:01:00,
2013-04-24 14:02:00,74.2,54.4,29.72,SSE,158,11.0,19.7,50,0.00,,,0.00,WUHU216HW,2013-04-24 18:02:00,
2013-04-24 14:04:00,74.2,54.4,29.72,South,180,12.8,19.7,50,0.00,,,0.00,WUHU216HW,2013-04-24 18:04:00,
2013-04-24 14:05:00,74.0,54.2,29.72,SSW,203,16.3,19.7,50,0.00,,,0.00,WUHU216HW,2013-04-24 18:05:00,
2013-04-24 14:07:00,73.8,54.6,29.72,SSE,158,11.2,19.7,51,0.00,,,0.00,WUHU216HW,2013-04-24 18:07:00,
2013-04-24 14:08:00,73.8,54.6,29.72,SSE,158,11.2,19.7,51,0.00,,,0.00,WUHU216HW,2013-04-24 18:08:00,
2013-04-24 14:09:00,74.0,55.2,29.72,SSW,203,11.2,16.3,52,0.00,,,0.00,WUHU216HW,2013-04-24 18:09:00,
2013-04-24 14:10:00,74.2,54.9,29.72,SSW,203,11.2,16.3,51,0.00,,,0.00,WUHU216HW,2013-04-24 18:10:00,
2013-04-24 14:12:00,74.2,54.4,29.72,SSW,203,13.9,16.3,50,0.00,,,0.00,WUHU216HW,2013-04-24 18:12:00,
2013-04-24 14:13:00,74.0,54.7,29.72,SSW,203,15.7,16.3,51,0.00,,,0.00,WUHU216HW,2013-04-24 18:13:00,
2013-04-24 14:14:00,74.2,54.4,29.72,SSE,158,14.3,16.3,50,0.00,,,0.00,WUHU216HW,2013-04-24 18:14:00,
2013-04-24 14:15:00,74.2,54.4,29.72,SSE,158,14.3,16.3,50,0.00,,,0.00,WUHU216HW,2013-04-24 18:15:00,
2013-04-24 14:16:00,74.2,54.9,29.71,SSE,158,13.6,15.7,51,0.00,,,0.00,WUHU216HW,2013-04-24 18:16:00,
2013-04-24 14:18:00,74.5,55.3,29.72,SSW,203,11.2,15.7,51,0.00,,,0.00,WUHU216HW,2013-04-24 18:18:00,
2013-04-24 14:19:00,74.5,55.3,29.72,SW,225,16.1,16.1,51,0.00,,,0.00,WUHU216HW,2013-04-24 18:19:00,
2013-04-24 14:20:00,74.7,55.5,29.71,SSW,203,11.0,16.1,51,0.00,,,0.00,WUHU216HW,2013-04-24 18:20:00,
2013-04-24 14:22:00,74.7,55.5,29.71,SE,135,8.5,16.1,51,0.00,,,0.00,WUHU216HW,2013-04-24 18:22:00,
2013-04-24 14:23:00,74.7,55.5,29.71,SSE,158,14.3,16.1,51,0.00,,,0.00,WUHU216HW,2013-04-24 18:23:00,
2013-04-24 14:24:00,74.5,54.7,29.71,SSE,158,18.6,18.6,50,0.00,,,0.00,WUHU216HW,2013-04-24 18:24:00,
2013-04-24 14:25:00,74.5,55.3,29.70,SE,135,14.1,18.6,51,0.00,,,0.00,WUHU216HW,2013-04-24 18:25:00,
2013-04-24 14:27:00,74.3,55.1,29.70,SSE,158,17.2,18.6,51,0.00,,,0.00,WUHU216HW,2013-04-24 18:27:00,
2013-04-24 14:28:00,74.3,54.5,29.70,South,180,16.3,18.6,50,0.00,,,0.00,WUHU216HW,2013-04-24 18:28:00,
2013-04-24 14:30:00,74.0,54.7,29.70,SSE,158,11.4,18.6,51,0.00,,,0.00,WUHU216HW,2013-04-24 18:30:00,
2013-04-24 14:32:00,74.0,54.7,29.71,SW,225,12.3,18.6,51,0.00,,,0.00,WUHU216HW,2013-04-24 18:32:00,
2013-04-24 14:34:00,73.8,54.6,29.70,SSW,203,11.6,18.6,51,0.00,,,0.00,WUHU216HW,2013-04-24 18:34:00,
2013-04-24 14:35:00,73.8,54.0,29.70,South,180,13.0,17.2,50,0.00,,,0.00,WUHU216HW,2013-04-24 18:35:00,
2013-04-24 14:36:00,73.6,53.2,29.70,SW,225,12.3,17.2,49,0.00,,,0.00,WUHU216HW,2013-04-24 18:36:00,
2013-04-24 14:38:00,73.4,53.0,29.70,SW,225,12.3,15.2,49,0.00,,,0.00,WUHU216HW,2013-04-24 18:38:00,
2013-04-24 14:39:00,73.4,53.0,29.70,SW,225,12.3,13.0,49,0.00,,,0.00,WUHU216HW,2013-04-24 18:39:00,
2013-04-24 14:40:00,73.4,53.0,29.70,SW,225,12.3,13.0,49,0.00,,,0.00,WUHU216HW,2013-04-24 18:40:00,
2013-04-24 14:41:00,73.6,52.0,29.70,SSW,203,19.0,19.0,47,0.00,,,0.00,WUHU216HW,2013-04-24 18:41:00,
2013-04-24 14:42:00,73.4,50.0,29.70,SSW,203,17.9,19.0,44,0.00,,,0.00,WUHU216HW,2013-04-24 18:42:00,
2013-04-24 14:44:00,73.3,50.0,29.70,SSW,203,15.4,19.0,44,0.00,,,0.00,WUHU216HW,2013-04-24 18:44:00,
2013-04-24 14:45:00,73.3,51.1,29.70,SSW,203,15.4,19.0,46,0.00,,,0.00,WUHU216HW,2013-04-24 18:45:00,
2013-04-24 14:47:00,73.3,51.1,29.70,SSW,203,13.9,19.0,46,0.00,,,0.00,WUHU216HW,2013-04-24 18:47:00,
2013-04-24 14:49:00,73.3,51.1,29.70,SSW,203,14.1,19.0,46,0.00,,,0.00,WUHU216HW,2013-04-24 18:49:00,
2013-04-24 14:50:00,73.1,50.9,29.70,South,180,17.9,17.9,46,0.00,,,0.00,WUHU216HW,2013-04-24 18:50:00,
2013-04-24 14:51:00,73.1,50.9,29.70,South,180,17.9,17.9,46,0.00,,,0.00,WUHU216HW,2013-04-24 18:51:00,
2013-04-24 14:54:00,72.7,51.2,29.70,SSW,203,14.8,17.9,47,0.00,,,0.00,WUHU216HW,2013-04-24 18:54:00,
2013-04-24 14:56:00,72.5,51.7,29.70,South,180,13.0,17.9,48,0.00,,,0.00,WUHU216HW,2013-04-24 18:56:00,
2013-04-24 14:57:00,72.4,51.5,29.69,SSW,203,11.0,17.9,48,0.00,,,0.00,WUHU216HW,2013-04-24 18:57:00,
2013-04-24 14:59:00,72.4,52.1,29.70,South,180,12.1,17.9,49,0.00,,,0.00,WUHU216HW,2013-04-24 18:59:00,
2013-04-24 15:01:00,72.4,51.5,29.70,SW,225,12.8,15.9,48,0.00,,,0.00,WUHU216HW,2013-04-24 19:01:00,
2013-04-24 15:02:00,72.4,51.5,29.70,SSW,203,18.1,18.1,48,0.00,,,0.00,WUHU216HW,2013-04-24 19:02:00,
2013-04-24 15:05:00,72.5,51.0,29.69,SSW,203,18.8,18.8,47,0.00,,,0.00,WUHU216HW,2013-04-24 19:05:00,
2013-04-24 15:06:00,72.5,51.0,29.69,South,180,13.6,18.8,47,0.00,,,0.00,WUHU216HW,2013-04-24 19:06:00,
2013-04-24 15:07:00,72.7,51.9,29.69,SSW,203,14.1,18.8,48,0.00,,,0.00,WUHU216HW,2013-04-24 19:07:00,
2013-04-24 15:08:00,72.7,51.9,29.69,SSW,203,12.1,18.8,48,0.00,,,0.00,WUHU216HW,2013-04-24 19:08:00,
2013-04-24 15:11:00,72.9,51.9,29.69,South,180,13.4,18.8,48,0.00,,,0.00,WUHU216HW,2013-04-24 19:11:00,
2013-04-24 15:12:00,73.1,52.8,29.69,South,180,14.1,18.8,49,0.00,,,0.00,WUHU216HW,2013-04-24 19:12:00,
2013-04-24 15:13:00,73.1,52.1,29.69,SW,225,13.6,18.8,48,0.00,,,0.00,WUHU216HW,2013-04-24 19:13:00,
2013-04-24 15:14:00,73.1,52.1,29.69,SW,225,13.6,18.8,48,0.00,,,0.00,WUHU216HW,2013-04-24 19:14:00,
2013-04-24 15:15:00,73.3,52.9,29.69,SSW,203,10.7,14.1,49,0.00,,,0.00,WUHU216HW,2013-04-24 19:15:00,
2013-04-24 15:16:00,73.3,52.9,29.69,SSW,203,10.7,14.1,49,0.00,,,0.00,WUHU216HW,2013-04-24 19:16:00,
2013-04-24 15:18:00,73.4,53.0,29.69,SSW,203,9.2,14.1,49,0.00,,,0.00,WUHU216HW,2013-04-24 19:18:00,
2013-04-24 15:19:00,73.6,53.2,29.69,SW,225,13.2,14.1,49,0.00,,,0.00,WUHU216HW,2013-04-24 19:19:00,
2013-04-24 15:21:00,74.0,53.0,29.69,SSW,203,10.5,15.4,48,0.00,,,0.00,WUHU216HW,2013-04-24 19:21:00,
2013-04-24 15:23:00,74.3,52.8,29.69,SSW,203,10.5,15.9,47,0.00,,,0.00,WUHU216HW,2013-04-24 19:23:00,
2013-04-24 15:24:00,74.3,52.1,29.68,South,180,18.8,18.8,46,0.00,,,0.00,WUHU216HW,2013-04-24 19:24:00,
2013-04-24 15:25:00,74.3,52.1,29.68,South,180,18.8,18.8,46,0.00,,,0.00,WUHU216HW,2013-04-24 19:25:00,
2013-04-24 15:26:00,74.3,52.8,29.68,South,180,11.6,18.8,47,0.00,,,0.00,WUHU216HW,2013-04-24 19:26:00,
2013-04-24 15:28:00,74.3,52.8,29.69,SSW,203,11.9,18.8,47,0.00,,,0.00,WUHU216HW,2013-04-24 19:28:00,
2013-04-24 15:29:00,74.3,51.6,29.69,SW,225,16.1,18.8,45,0.00,,,0.00,WUHU216HW,2013-04-24 19:29:00,
2013-04-24 15:30:00,74.3,52.1,29.68,SSW,203,10.3,18.8,46,0.00,,,0.00,WUHU216HW,2013-04-24 19:30:00,
2013-04-24 15:31:00,74.3,52.1,29.68,SSW,203,10.3,18.8,46,0.00,,,0.00,WUHU216HW,2013-04-24 19:31:00,
2013-04-24 15:33:00,74.3,52.8,29.68,SSW,203,9.8,18.8,47,0.00,,,0.00,WUHU216HW,2013-04-24 19:33:00,
2013-04-24 15:34:00,74.2,51.9,29.68,SSE,158,12.5,16.1,46,0.00,,,0.00,WUHU216HW,2013-04-24 19:34:00,
2013-04-24 15:37:00,73.6,50.2,29.68,South,180,17.4,19.2,44,0.00,,,0.00,WUHU216HW,2013-04-24 19:37:00,
2013-04-24 15:38:00,73.4,50.7,29.68,South,180,15.0,19.2,45,0.00,,,0.00,WUHU216HW,2013-04-24 19:38:00,
2013-04-24 15:39:00,73.4,50.7,29.68,SW,225,16.1,19.2,45,0.00,,,0.00,WUHU216HW,2013-04-24 19:39:00,
2013-04-24 15:42:00,73.6,52.0,29.68,SW,225,16.1,19.2,47,0.00,,,0.00,WUHU216HW,2013-04-24 19:42:00,
2013-04-24 15:43:00,73.8,52.2,29.68,South,180,7.8,19.2,47,0.00,,,0.00,WUHU216HW,2013-04-24 19:43:00,
2013-04-24 15:44:00,73.8,52.2,29.68,South,180,7.8,19.2,47,0.00,,,0.00,WUHU216HW,2013-04-24 19:44:00,
2013-04-24 15:45:00,73.8,52.2,29.68,South,180,8.5,17.4,47,0.00,,,0.00,WUHU216HW,2013-04-24 19:45:00,
2013-04-24 15:47:00,73.8,51.0,29.67,SSW,203,15.0,17.0,45,0.00,,,0.00,WUHU216HW,2013-04-24 19:47:00,
2013-04-24 15:49:00,73.8,51.0,29.67,SSW,203,13.4,17.0,45,0.00,,,0.00,WUHU216HW,2013-04-24 19:49:00,
2013-04-24 15:50:00,73.8,50.4,29.67,South,180,15.0,17.0,44,0.00,,,0.00,WUHU216HW,2013-04-24 19:50:00,
2013-04-24 15:52:00,73.6,49.7,29.67,SSW,203,15.0,17.0,43,0.00,,,0.00,WUHU216HW,2013-04-24 19:52:00,
2013-04-24 15:54:00,73.6,50.2,29.67,SSW,203,15.0,17.0,44,0.00,,,0.00,WUHU216HW,2013-04-24 19:54:00,
2013-04-24 15:55:00,73.4,50.0,29.67,South,180,13.0,17.0,44,0.00,,,0.00,WUHU216HW,2013-04-24 19:55:00,
2013-04-24 15:56:00,73.8,50.4,29.67,SSE,158,13.0,17.0,44,0.00,,,0.00,WUHU216HW,2013-04-24 19:56:00,
2013-04-24 15:57:00,73.8,49.9,29.67,SSW,203,17.9,17.9,43,0.00,,,0.00,WUHU216HW,2013-04-24 19:57:00,
2013-04-24 15:59:00,73.8,50.4,29.67,South,180,16.3,17.9,44,0.00,,,0.00,WUHU216HW,2013-04-24 19:59:00,
2013-04-24 16:00:00,74.0,50.6,29.67,South,180,18.8,18.8,44,0.00,,,0.00,WUHU216HW,2013-04-24 20:00:00,
2013-04-24 16:02:00,74.3,49.7,29.67,SSW,203,16.8,18.8,42,0.00,,,0.00,WUHU216HW,2013-04-24 20:02:00,
2013-04-24 16:03:00,74.3,51.0,29.67,SSW,203,13.9,18.8,44,0.00,,,0.00,WUHU216HW,2013-04-24 20:03:00,
2013-04-24 16:04:00,74.5,50.5,29.67,SSW,203,13.9,18.8,43,0.00,,,0.00,WUHU216HW,2013-04-24 20:04:00,
2013-04-24 16:05:00,74.5,51.1,29.67,SSW,203,15.0,18.8,44,0.00,,,0.00,WUHU216HW,2013-04-24 20:05:00,
2013-04-24 16:07:00,74.7,50.0,29.67,SSW,203,17.4,18.8,42,0.00,,,0.00,WUHU216HW,2013-04-24 20:07:00,
2013-04-24 16:08:00,74.7,50.7,29.67,SSW,203,15.7,18.8,43,0.00,,,0.00,WUHU216HW,2013-04-24 20:08:00,
2013-04-24 16:11:00,74.5,50.5,29.67,SSW,203,16.3,18.1,43,0.00,,,0.00,WUHU216HW,2013-04-24 20:11:00,
2013-04-24 16:12:00,74.5,51.1,29.67,SSW,203,10.3,18.1,44,0.00,,,0.00,WUHU216HW,2013-04-24 20:12:00,
2013-04-24 16:13:00,74.5,52.3,29.67,SSW,203,10.3,18.1,46,0.00,,,0.00,WUHU216HW,2013-04-24 20:13:00,
2013-04-24 16:14:00,74.5,51.7,29.67,SSW,203,10.3,18.1,45,0.00,,,0.00,WUHU216HW,2013-04-24 20:14:00,
2013-04-24 16:17:00,74.5,51.1,29.67,SSW,203,15.2,18.1,44,0.00,,,0.00,WUHU216HW,2013-04-24 20:17:00,
2013-04-24 16:19:00,74.3,50.3,29.67,SSW,203,13.4,18.1,43,0.00,,,0.00,WUHU216HW,2013-04-24 20:19:00,
2013-04-24 16:20:00,74.3,50.3,29.67,SSW,203,13.4,18.1,43,0.00,,,0.00,WUHU216HW,2013-04-24 20:20:00,
2013-04-24 16:23:00,73.8,50.4,29.67,South,180,9.8,16.1,44,0.00,,,0.00,WUHU216HW,2013-04-24 20:23:00,
2013-04-24 16:24:00,73.8,50.4,29.66,South,180,9.8,16.1,44,0.00,,,0.00,WUHU216HW,2013-04-24 20:24:00,
2013-04-24 16:25:00,73.8,49.9,29.66,SSE,158,13.4,16.1,43,0.00,,,0.00,WUHU216HW,2013-04-24 20:25:00,
2013-04-24 16:28:00,73.6,50.9,29.66,SW,225,11.4,16.1,45,0.00,,,0.00,WUHU216HW,2013-04-24 20:28:00,
2013-04-24 16:30:00,73.4,50.0,29.66,SW,225,11.4,16.1,44,0.00,,,0.00,WUHU216HW,2013-04-24 20:30:00,
2013-04-24 16:33:00,73.4,50.7,29.66,South,180,12.5,16.8,45,0.00,,,0.00,WUHU216HW,2013-04-24 20:33:00,
2013-04-24 16:34:00,73.4,50.7,29.66,South,180,17.9,17.9,45,0.00,,,0.00,WUHU216HW,2013-04-24 20:34:00,
2013-04-24 16:35:00,73.4,50.7,29.66,South,180,16.1,17.9,45,0.00,,,0.00,WUHU216HW,2013-04-24 20:35:00,
2013-04-24 16:36:00,73.4,50.7,29.66,South,180,16.1,17.9,45,0.00,,,0.00,WUHU216HW,2013-04-24 20:36:00,
2013-04-24 16:37:00,73.3,51.7,29.66,SW,225,11.2,17.9,47,0.00,,,0.00,WUHU216HW,2013-04-24 20:37:00,
2013-04-24 16:39:00,73.4,50.7,29.66,SSW,203,15.0,17.9,45,0.00,,,0.00,WUHU216HW,2013-04-24 20:39:00,
2013-04-24 16:41:00,73.4,51.3,29.65,SSW,203,11.4,17.9,46,0.00,,,0.00,WUHU216HW,2013-04-24 20:41:00,
2013-04-24 16:42:00,73.4,51.3,29.65,SSW,203,11.4,17.9,46,0.00,,,0.00,WUHU216HW,2013-04-24 20:42:00,
2013-04-24 16:45:00,73.6,50.9,29.65,SSW,203,18.3,18.3,45,0.00,,,0.00,WUHU216HW,2013-04-24 20:45:00,
2013-04-24 16:46:00,73.8,51.0,29.65,South,180,13.9,18.3,45,0.00,,,0.00,WUHU216HW,2013-04-24 20:46:00,
2013-04-24 16:47:00,73.8,51.0,29.65,South,180,13.9,18.3,45,0.00,,,0.00,WUHU216HW,2013-04-24 20:47:00,
2013-04-24 16:52:00,74.3,52.1,29.65,SSW,203,9.8,18.3,46,0.00,,,0.00,WUHU216HW,2013-04-24 20:52:00,
2013-04-24 16:53:00,74.3,51.0,29.65,SSW,203,14.5,18.3,44,0.00,,,0.00,WUHU216HW,2013-04-24 20:53:00,
2013-04-24 16:57:00,74.3,51.6,29.65,SSW,203,13.4,18.3,45,0.00,,,0.00,WUHU216HW,2013-04-24 20:57:00,
2013-04-24 16:58:00,74.3,51.6,29.65,SSW,203,13.4,18.3,45,0.00,,,0.00,WUHU216HW,2013-04-24 20:58:00,
2013-04-24 16:59:00,74.2,51.4,29.65,SW,225,18.3,18.3,45,0.00,,,0.00,WUHU216HW,2013-04-24 20:59:00,
2013-04-24 17:03:00,74.0,50.6,29.64,SSE,158,17.9,18.3,44,0.00,,,0.00,WUHU216HW,2013-04-24 21:03:00,
2013-04-24 17:04:00,73.8,50.4,29.64,SSE,158,17.9,18.3,44,0.00,,,0.00,WUHU216HW,2013-04-24 21:04:00,
2013-04-24 17:05:00,73.8,50.4,29.64,SSE,158,17.9,18.3,44,0.00,,,0.00,WUHU216HW,2013-04-24 21:05:00,
2013-04-24 17:07:00,73.6,50.9,29.64,South,180,10.7,18.3,45,0.00,,,0.00,WUHU216HW,2013-04-24 21:07:00,
2013-04-24 17:08:00,73.6,51.5,29.64,SSW,203,8.5,18.3,46,0.00,,,0.00,WUHU216HW,2013-04-24 21:08:00,
2013-04-24 17:09:00,73.4,50.7,29.64,SSW,203,8.5,17.9,45,0.00,,,0.00,WUHU216HW,2013-04-24 21:09:00,
2013-04-24 17:10:00,73.4,50.7,29.64,SSW,203,8.5,17.9,45,0.00,,,0.00,WUHU216HW,2013-04-24 21:10:00,
2013-04-24 17:12:00,73.3,51.1,29.64,SSW,203,12.5,17.9,46,0.00,,,0.00,WUHU216HW,2013-04-24 21:12:00,
2013-04-24 17:13:00,73.4,51.3,29.64,SSW,203,11.4,17.9,46,0.00,,,0.00,WUHU216HW,2013-04-24 21:13:00,
2013-04-24 17:14:00,73.4,51.3,29.64,SSW,203,12.3,16.6,46,0.00,,,0.00,WUHU216HW,2013-04-24 21:14:00,
2013-04-24 17:15:00,73.4,51.3,29.64,SSW,203,12.3,16.6,46,0.00,,,0.00,WUHU216HW,2013-04-24 21:15:00,
2013-04-24 17:17:00,73.6,50.9,29.65,South,180,17.2,19.9,45,0.00,,,0.00,WUHU216HW,2013-04-24 21:17:00,
2013-04-24 17:20:00,74.0,51.2,29.64,SSW,203,15.0,19.9,45,0.00,,,0.00,WUHU216HW,2013-04-24 21:20:00,
2013-04-24 17:22:00,74.2,51.9,29.64,SSW,203,9.8,19.9,46,0.00,,,0.00,WUHU216HW,2013-04-24 21:22:00,
2013-04-24 17:25:00,74.2,51.9,29.64,SSW,203,15.7,19.9,46,0.00,,,0.00,WUHU216HW,2013-04-24 21:25:00,
2013-04-24 17:27:00,74.2,51.9,29.64,SSW,203,17.2,19.2,46,0.00,,,0.00,WUHU216HW,2013-04-24 21:27:00,
2013-04-24 17:28:00,74.0,52.4,29.64,SSE,158,15.7,17.2,47,0.00,,,0.00,WUHU216HW,2013-04-24 21:28:00,
2013-04-24 17:30:00,73.8,52.2,29.64,SSW,203,12.3,17.2,47,0.00,,,0.00,WUHU216HW,2013-04-24 21:30:00,
2013-04-24 17:31:00,73.8,52.2,29.64,SSW,203,12.3,17.2,47,0.00,,,0.00,WUHU216HW,2013-04-24 21:31:00,
2013-04-24 17:32:00,73.4,51.8,29.64,SSW,203,13.4,17.2,47,0.00,,,0.00,WUHU216HW,2013-04-24 21:32:00,
2013-04-24 17:33:00,73.4,51.8,29.64,SSW,203,9.2,17.2,47,0.00,,,0.00,WUHU216HW,2013-04-24 21:33:00,
2013-04-24 17:34:00,73.4,51.8,29.64,SSW,203,9.2,17.2,47,0.00,,,0.00,WUHU216HW,2013-04-24 21:34:00,
2013-04-24 17:36:00,73.3,51.1,29.64,SSW,203,14.3,17.2,46,0.00,,,0.00,WUHU216HW,2013-04-24 21:36:00,
2013-04-24 17:37:00,73.3,51.7,29.64,SSW,203,17.2,17.2,47,0.00,,,0.00,WUHU216HW,2013-04-24 21:37:00,
2013-04-24 17:39:00,73.3,51.7,29.64,SSW,203,18.3,18.3,47,0.00,,,0.00,WUHU216HW,2013-04-24 21:39:00,
2013-04-24 17:40:00,73.3,52.3,29.64,South,180,12.8,18.3,48,0.00,,,0.00,WUHU216HW,2013-04-24 21:40:00,
2013-04-24 17:41:00,73.3,52.3,29.64,South,180,10.1,18.3,48,0.00,,,0.00,WUHU216HW,2013-04-24 21:41:00,
2013-04-24 17:42:00,73.3,52.3,29.64,South,180,10.1,18.3,48,0.00,,,0.00,WUHU216HW,2013-04-24 21:42:00,
2013-04-24 17:43:00,73.3,51.7,29.64,SSW,203,15.0,18.3,47,0.00,,,0.00,WUHU216HW,2013-04-24 21:43:00,
2013-04-24 17:44:00,73.4,52.5,29.64,SSW,203,12.8,18.3,48,0.00,,,0.00,WUHU216HW,2013-04-24 21:44:00,
2013-04-24 17:46:00,73.4,51.8,29.64,SSW,203,14.3,18.3,47,0.00,,,0.00,WUHU216HW,2013-04-24 21:46:00,
2013-04-24 17:47:00,73.4,51.8,29.64,South,180,14.3,18.3,47,0.00,,,0.00,WUHU216HW,2013-04-24 21:47:00,
2013-04-24 17:48:00,73.4,51.8,29.64,SSW,203,12.8,18.3,47,0.00,,,0.00,WUHU216HW,2013-04-24 21:48:00,
2013-04-24 17:50:00,73.4,52.5,29.64,SSW,203,14.8,15.0,48,0.00,,,0.00,WUHU216HW,2013-04-24 21:50:00,
2013-04-24 17:51:00,73.3,51.7,29.64,SW,225,14.3,15.0,47,0.00,,,0.00,WUHU216HW,2013-04-24 21:51:00,
2013-04-24 17:54:00,73.1,52.1,29.64,South,180,11.0,14.8,48,0.00,,,0.00,WUHU216HW,2013-04-24 21:54:00,
2013-04-24 17:55:00,72.9,51.9,29.64,SE,135,10.7,14.8,48,0.00,,,0.00,WUHU216HW,2013-04-24 21:55:00,
2013-04-24 17:57:00,72.7,51.9,29.64,SSW,203,10.5,14.8,48,0.00,,,0.00,WUHU216HW,2013-04-24 21:57:00,
2013-04-24 17:59:00,72.5,51.7,29.64,South,180,18.1,18.1,48,0.00,,,0.00,WUHU216HW,2013-04-24 21:59:00,
2013-04-24 18:00:00,72.5,51.7,29.64,SSW,203,13.9,18.1,48,0.00,,,0.00,WUHU216HW,2013-04-24 22:00:00,
2013-04-24 18:02:00,72.5,51.7,29.64,SSW,203,13.2,18.1,48,0.00,,,0.00,WUHU216HW,2013-04-24 22:02:00,
2013-04-24 18:03:00,72.5,51.7,29.64,SW,225,10.5,18.1,48,0.00,,,0.00,WUHU216HW,2013-04-24 22:03:00,
2013-04-24 18:04:00,72.5,51.7,29.64,SSW,203,11.6,18.1,48,0.00,,,0.00,WUHU216HW,2013-04-24 22:04:00,
2013-04-24 18:05:00,72.7,52.4,29.65,SSW,203,9.6,18.1,49,0.00,,,0.00,WUHU216HW,2013-04-24 22:05:00,
2013-04-24 18:07:00,73.1,51.6,29.65,SSW,203,12.1,18.1,47,0.00,,,0.00,WUHU216HW,2013-04-24 22:07:00,
2013-04-24 18:08:00,73.1,52.1,29.65,SSW,203,13.0,17.0,48,0.00,,,0.00,WUHU216HW,2013-04-24 22:08:00,
2013-04-24 18:10:00,73.1,52.1,29.65,SSW,203,11.6,17.0,48,0.00,,,0.00,WUHU216HW,2013-04-24 22:10:00,
2013-04-24 18:11:00,73.1,52.1,29.64,SSW,203,15.0,17.0,48,0.00,,,0.00,WUHU216HW,2013-04-24 22:11:00,
2013-04-24 18:12:00,73.1,52.8,29.64,SSW,203,9.2,17.0,49,0.00,,,0.00,WUHU216HW,2013-04-24 22:12:00,
2013-04-24 18:13:00,73.1,52.8,29.65,SSW,203,12.8,17.0,49,0.00,,,0.00,WUHU216HW,2013-04-24 22:13:00,
2013-04-24 18:15:00,72.5,52.2,29.65,SSW,203,11.4,17.0,49,0.00,,,0.00,WUHU216HW,2013-04-24 22:15:00,
2013-04-24 18:17:00,72.5,52.2,29.65,SSW,203,11.4,15.7,49,0.00,,,0.00,WUHU216HW,2013-04-24 22:17:00,
2013-04-24 18:18:00,72.4,52.1,29.65,SSW,203,10.5,15.7,49,0.00,,,0.00,WUHU216HW,2013-04-24 22:18:00,
2013-04-24 18:20:00,72.2,52.5,29.64,SE,135,12.3,16.1,50,0.00,,,0.00,WUHU216HW,2013-04-24 22:20:00,
2013-04-24 18:21:00,72.2,52.5,29.64,SE,135,12.3,16.1,50,0.00,,,0.00,WUHU216HW,2013-04-24 22:21:00,
2013-04-24 18:22:00,72.2,52.5,29.64,SSW,203,11.4,16.1,50,0.00,,,0.00,WUHU216HW,2013-04-24 22:22:00,
2013-04-24 18:23:00,72.2,51.9,29.64,SSW,203,14.5,16.1,49,0.00,,,0.00,WUHU216HW,2013-04-24 22:23:00,
2013-04-24 18:24:00,72.0,51.8,29.65,South,180,13.6,16.1,49,0.00,,,0.00,WUHU216HW,2013-04-24 22:24:00,
2013-04-24 18:26:00,72.0,51.8,29.65,SW,225,11.9,16.1,49,0.00,,,0.00,WUHU216HW,2013-04-24 22:26:00,
2013-04-24 18:28:00,72.0,52.4,29.65,SSE,158,8.5,16.1,50,0.00,,,0.00,WUHU216HW,2013-04-24 22:28:00,
2013-04-24 18:30:00,71.8,52.2,29.65,SSW,203,12.5,14.5,50,0.00,,,0.00,WUHU216HW,2013-04-24 22:30:00,
2013-04-24 18:31:00,71.8,52.2,29.66,SSW,203,16.1,16.1,50,0.00,,,0.00,WUHU216HW,2013-04-24 22:31:00,
2013-04-24 18:32:00,71.8,52.2,29.66,SSW,203,12.1,16.1,50,0.00,,,0.00,WUHU216HW,2013-04-24 22:32:00,
2013-04-24 18:34:00,71.8,52.2,29.66,South,180,12.8,17.4,50,0.00,,,0.00,WUHU216HW,2013-04-24 22:34:00,
2013-04-24 18:36:00,71.6,52.0,29.67,South,180,13.9,17.4,50,0.00,,,0.00,WUHU216HW,2013-04-24 22:36:00,
2013-04-24 18:37:00,71.6,52.0,29.67,South,180,13.9,17.4,50,0.00,,,0.00,WUHU216HW,2013-04-24 22:37:00,
2013-04-24 18:38:00,71.6,52.0,29.67,SSW,203,12.1,17.4,50,0.00,,,0.00,WUHU216HW,2013-04-24 22:38:00,
2013-04-24 18:39:00,71.6,52.6,29.67,SSW,203,17.9,17.9,51,0.00,,,0.00,WUHU216HW,2013-04-24 22:39:00,
2013-04-24 18:41:00,71.3,52.8,29.68,SW,225,10.5,17.9,52,0.00,,,0.00,WUHU216HW,2013-04-24 22:41:00,
2013-04-24 18:43:00,71.1,53.6,29.69,SW,225,17.9,17.9,54,0.00,,,0.00,WUHU216HW,2013-04-24 22:43:00,
2013-04-24 18:45:00,70.4,53.4,29.70,West,270,20.1,20.1,55,0.00,,,0.00,WUHU216HW,2013-04-24 22:45:00,
2013-04-24 18:46:00,69.8,53.9,29.70,SSW,203,28.9,28.9,57,0.00,,,0.00,WUHU216HW,2013-04-24 22:46:00,
2013-04-24 18:48:00,68.9,55.0,29.72,West,270,21.5,28.9,61,0.00,,,0.00,WUHU216HW,2013-04-24 22:48:00,
2013-04-24 18:49:00,68.6,55.0,29.72,SSW,203,26.4,28.9,62,0.00,,,0.00,WUHU216HW,2013-04-24 22:49:00,
2013-04-24 18:50:00,68.0,55.4,29.72,WSW,248,24.6,28.9,64,0.00,,,0.00,WUHU216HW,2013-04-24 22:50:00,
2013-04-24 18:51:00,68.0,55.8,29.72,WNW,293,14.1,28.9,65,0.00,,,0.00,WUHU216HW,2013-04-24 22:51:00,
2013-04-24 18:52:00,67.7,55.9,29.72,West,270,12.1,28.9,66,0.00,,,0.00,WUHU216HW,2013-04-24 22:52:00,
2013-04-24 18:54:00,67.3,55.5,29.72,WNW,293,9.4,28.9,66,0.00,,,0.00,WUHU216HW,2013-04-24 22:54:00,
2013-04-24 18:56:00,66.8,56.3,29.72,WNW,293,9.2,26.4,69,0.01,,,0.01,WUHU216HW,2013-04-24 22:56:00,
2013-04-24 18:57:00,66.4,55.9,29.72,WNW,293,11.4,26.4,69,0.01,,,0.01,WUHU216HW,2013-04-24 22:57:00,
2013-04-24 18:59:00,65.9,55.8,29.71,West,270,11.9,24.6,70,0.01,,,0.01,WUHU216HW,2013-04-24 22:59:00,
2013-04-24 19:00:00,65.7,55.7,29.71,SW,225,9.4,14.1,70,0.01,,,0.01,WUHU216HW,2013-04-24 23:00:00,
2013-04-24 19:03:00,65.0,56.5,29.70,WSW,248,7.8,13.4,74,0.01,,,0.01,WUHU216HW,2013-04-24 23:03:00,
2013-04-24 19:05:00,64.6,56.2,29.70,SSW,203,7.8,13.4,74,0.01,,,0.01,WUHU216HW,2013-04-24 23:05:00,
2013-04-24 19:06:00,64.4,56.3,29.70,SW,225,6.3,13.4,75,0.01,,,0.01,WUHU216HW,2013-04-24 23:06:00,
2013-04-24 19:08:00,64.4,56.7,29.69,SSE,158,4.3,11.9,76,0.01,,,0.01,WUHU216HW,2013-04-24 23:08:00,
2013-04-24 19:10:00,64.4,56.3,29.69,SSE,158,4.7,8.1,75,0.01,,,0.01,WUHU216HW,2013-04-24 23:10:00,
2013-04-24 19:12:00,64.3,56.9,29.70,South,180,4.5,8.1,77,0.01,,,0.01,WUHU216HW,2013-04-24 23:12:00,
2013-04-24 19:13:00,64.3,56.9,29.70,South,180,5.6,8.1,77,0.01,,,0.01,WUHU216HW,2013-04-24 23:13:00,
2013-04-24 19:15:00,64.3,56.9,29.69,South,180,4.7,6.3,77,0.01,,,0.01,WUHU216HW,2013-04-24 23:15:00,
2013-04-24 19:16:00,64.3,56.9,29.70,SSW,203,2.5,5.6,77,0.01,,,0.01,WUHU216HW,2013-04-24 23:16:00,
2013-04-24 19:18:00,64.3,57.2,29.70,SSW,203,3.8,5.6,78,0.01,,,0.01,WUHU216HW,2013-04-24 23:18:00,
2013-04-24 19:19:00,64.3,57.2,29.70,SSW,203,3.8,5.6,78,0.01,,,0.01,WUHU216HW,2013-04-24 23:19:00,
2013-04-24 19:21:00,64.3,57.2,29.71,SW,225,6.0,8.1,78,0.01,,,0.01,WUHU216HW,2013-04-24 23:21:00,
2013-04-24 19:22:00,64.3,57.2,29.71,SW,225,6.0,8.1,78,0.01,,,0.01,WUHU216HW,2013-04-24 23:22:00,
2013-04-24 19:23:00,64.3,57.2,29.71,SSW,203,4.0,8.1,78,0.01,,,0.01,WUHU216HW,2013-04-24 23:23:00,
2013-04-24 19:25:00,64.4,57.4,29.70,SSW,203,3.4,8.1,78,0.01,,,0.01,WUHU216HW,2013-04-24 23:25:00,
2013-04-24 19:26:00,64.4,57.4,29.70,South,180,3.4,8.1,78,0.01,,,0.01,WUHU216HW,2013-04-24 23:26:00,
2013-04-24 19:27:00,64.4,57.1,29.70,South,180,6.0,8.1,77,0.01,,,0.01,WUHU216HW,2013-04-24 23:27:00,
2013-04-24 19:28:00,64.4,57.1,29.70,SSW,203,6.3,8.1,77,0.01,,,0.01,WUHU216HW,2013-04-24 23:28:00,
2013-04-24 19:31:00,64.6,56.9,29.70,South,180,3.6,6.7,76,0.01,,,0.01,WUHU216HW,2013-04-24 23:31:00,
2013-04-24 19:32:00,64.6,56.9,29.71,South,180,5.1,6.7,76,0.01,,,0.01,WUHU216HW,2013-04-24 23:32:00,
2013-04-24 19:33:00,64.6,56.9,29.71,South,180,5.1,6.7,76,0.01,,,0.01,WUHU216HW,2013-04-24 23:33:00,
2013-04-24 19:36:00,64.3,56.2,29.71,SSW,203,8.5,9.8,75,0.01,,,0.01,WUHU216HW,2013-04-24 23:36:00,
2013-04-24 19:37:00,64.3,56.2,29.71,SSW,203,8.5,9.8,75,0.01,,,0.01,WUHU216HW,2013-04-24 23:37:00,
2013-04-24 19:38:00,64.3,56.5,29.71,SSW,203,8.9,9.8,76,0.01,,,0.01,WUHU216HW,2013-04-24 23:38:00,
2013-04-24 19:39:00,64.1,56.3,29.71,SW,225,8.1,9.8,76,0.01,,,0.01,WUHU216HW,2013-04-24 23:39:00,
2013-04-24 19:42:00,63.9,56.2,29.71,SW,225,7.8,9.8,76,0.01,,,0.01,WUHU216HW,2013-04-24 23:42:00,
2013-04-24 19:43:00,63.9,56.2,29.72,SSW,203,9.2,9.8,76,0.01,,,0.01,WUHU216HW,2013-04-24 23:43:00,
2013-04-24 19:44:00,63.9,56.2,29.72,SSW,203,9.2,9.8,76,0.01,,,0.01,WUHU216HW,2013-04-24 23:44:00,
2013-04-24 19:45:00,63.9,56.2,29.72,SW,225,11.2,11.2,76,0.01,,,0.01,WUHU216HW,2013-04-24 23:45:00,
2013-04-24 19:47:00,63.9,55.8,29.72,SW,225,8.7,11.2,75,0.01,,,0.01,WUHU216HW,2013-04-24 23:47:00,
2013-04-24 19:49:00,63.7,56.0,29.71,South,180,6.9,11.2,76,0.01,,,0.01,WUHU216HW,2013-04-24 23:49:00,
2013-04-24 19:50:00,63.7,56.0,29.71,SSW,203,6.0,11.2,76,0.01,,,0.01,WUHU216HW,2013-04-24 23:50:00,
2013-04-24 19:51:00,63.5,56.2,29.71,South,180,6.9,11.2,77,0.01,,,0.01,WUHU216HW,2013-04-24 23:51:00,
2013-04-24 19:52:00,63.5,56.2,29.71,South,180,6.9,11.2,77,0.01,,,0.01,WUHU216HW,2013-04-24 23:52:00,
2013-04-24 19:54:00,63.5,56.2,29.71,South,180,8.7,11.2,77,0.00,,,0.01,WUHU216HW,2013-04-24 23:54:00,
2013-04-24 19:57:00,63.4,55.6,29.71,SSW,203,10.5,12.1,76,0.00,,,0.01,WUHU216HW,2013-04-24 23:57:00,
2013-04-24 19:58:00,63.4,56.0,29.71,South,180,11.6,12.1,77,0.00,,,0.01,WUHU216HW,2013-04-24 23:58:00,
2013-04-24 20:00:00,63.4,56.0,29.71,South,180,12.8,12.8,77,0.00,,,0.01,WUHU216HW,2013-04-25 00:00:00,
2013-04-24 20:02:00,63.4,56.0,29.71,SSE,158,7.8,12.8,77,0.00,,,0.01,WUHU216HW,2013-04-25 00:02:00,
2013-04-24 20:03:00,63.2,56.2,29.71,South,180,7.8,12.8,78,0.00,,,0.01,WUHU216HW,2013-04-25 00:03:00,
2013-04-24 20:05:00,63.2,56.2,29.71,South,180,8.1,12.8,78,0.00,,,0.01,WUHU216HW,2013-04-25 00:05:00,
2013-04-24 20:08:00,63.4,56.3,29.71,SSW,203,6.7,12.8,78,0.00,,,0.01,WUHU216HW,2013-04-25 00:08:00,
2013-04-24 20:09:00,63.2,56.2,29.71,South,180,8.5,12.8,78,0.00,,,0.01,WUHU216HW,2013-04-25 00:09:00,
2013-04-24 20:11:00,63.2,56.2,29.71,SSE,158,9.2,12.1,78,0.00,,,0.01,WUHU216HW,2013-04-25 00:11:00,
2013-04-24 20:13:00,63.2,56.2,29.71,South,180,5.6,12.1,78,0.00,,,0.01,WUHU216HW,2013-04-25 00:13:00,
2013-04-24 20:16:00,63.0,56.0,29.71,SSW,203,7.8,10.3,78,0.00,,,0.01,WUHU216HW,2013-04-25 00:16:00,
2013-04-24 20:18:00,63.0,56.0,29.72,SSW,203,6.3,9.6,78,0.00,,,0.01,WUHU216HW,2013-04-25 00:18:00,
2013-04-24 20:19:00,62.8,55.8,29.72,SSW,203,8.9,9.6,78,0.00,,,0.01,WUHU216HW,2013-04-25 00:19:00,
2013-04-24 20:22:00,62.8,55.8,29.72,SSW,203,7.8,8.9,78,0.00,,,0.01,WUHU216HW,2013-04-25 00:22:00,
2013-04-24 20:25:00,62.8,55.4,29.71,SW,225,8.5,8.9,77,0.00,,,0.01,WUHU216HW,2013-04-25 00:25:00,
2013-04-24 20:26:00,62.8,55.4,29.71,SSW,203,7.8,8.9,77,0.00,,,0.01,WUHU216HW,2013-04-25 00:26:00,
2013-04-24 20:27:00,62.8,55.4,29.71,SSW,203,7.8,8.9,77,0.00,,,0.01,WUHU216HW,2013-04-25 00:27:00,
2013-04-24 20:31:00,62.6,54.9,29.72,SSW,203,6.9,8.5,76,0.00,,,0.01,WUHU216HW,2013-04-25 00:31:00,
2013-04-24 20:32:00,62.6,54.9,29.72,WSW,248,5.6,8.5,76,0.00,,,0.01,WUHU216HW,2013-04-25 00:32:00,
2013-04-24 20:34:00,62.6,54.9,29.72,SW,225,7.6,8.5,76,0.00,,,0.01,WUHU216HW,2013-04-25 00:34:00,
2013-04-24 20:36:00,62.5,54.7,29.72,SW,225,5.8,7.6,76,0.00,,,0.01,WUHU216HW,2013-04-25 00:36:00,
2013-04-24 20:37:00,62.5,54.7,29.72,SW,225,5.8,7.6,76,0.00,,,0.01,WUHU216HW,2013-04-25 00:37:00,
2013-04-24 20:38:00,62.3,54.5,29.72,SSW,203,8.1,8.1,76,0.00,,,0.01,WUHU216HW,2013-04-25 00:38:00,
2013-04-24 20:40:00,62.3,54.5,29.72,South,180,7.6,8.1,76,0.00,,,0.01,WUHU216HW,2013-04-25 00:40:00,
2013-04-24 20:41:00,62.3,54.5,29.72,SSW,203,9.2,9.2,76,0.00,,,0.01,WUHU216HW,2013-04-25 00:41:00,
2013-04-24 20:43:00,62.3,54.5,29.72,SSE,158,10.5,10.5,76,0.00,,,0.01,WUHU216HW,2013-04-25 00:43:00,
2013-04-24 20:44:00,62.5,54.7,29.72,SSW,203,7.6,10.5,76,0.00,,,0.01,WUHU216HW,2013-04-25 00:44:00,
2013-04-24 20:46:00,62.6,54.5,29.72,SSW,203,8.9,10.5,75,0.00,,,0.01,WUHU216HW,2013-04-25 00:46:00,
2013-04-24 20:47:00,62.6,54.5,29.72,SSE,158,7.8,10.5,75,0.00,,,0.01,WUHU216HW,2013-04-25 00:47:00,
2013-04-24 20:48:00,62.5,54.4,29.72,SSE,158,11.4,11.4,75,0.00,,,0.01,WUHU216HW,2013-04-25 00:48:00,
2013-04-24 20:49:00,62.6,54.5,29.72,South,180,8.3,11.4,75,0.00,,,0.01,WUHU216HW,2013-04-25 00:49:00,
2013-04-24 20:51:00,62.6,54.5,29.72,SSE,158,8.9,11.4,75,0.00,,,0.01,WUHU216HW,2013-04-25 00:51:00,
2013-04-24 20:53:00,62.3,54.5,29.72,SSW,203,7.6,11.4,76,0.00,,,0.01,WUHU216HW,2013-04-25 00:53:00,
2013-04-24 20:54:00,62.3,54.5,29.72,SSW,203,11.2,11.4,76,0.00,,,0.01,WUHU216HW,2013-04-25 00:54:00,
2013-04-24 20:56:00,62.5,54.7,29.72,SW,225,7.4,11.4,76,0.00,,,0.01,WUHU216HW,2013-04-25 00:56:00,
2013-04-24 20:58:00,62.3,54.5,29.73,SSW,203,6.9,11.2,76,0.00,,,0.01,WUHU216HW,2013-04-25 00:58:00,
2013-04-24 21:00:00,62.1,54.5,29.73,SSW,203,5.8,11.2,76,0.00,,,0.01,WUHU216HW,2013-04-25 01:00:00,
2013-04-24 21:01:00,61.9,54.3,29.73,SSW,203,6.3,11.2,76,0.00,,,0.01,WUHU216HW,2013-04-25 01:01:00,
2013-04-24 21:02:00,61.9,54.3,29.73,SSW,203,6.9,11.2,76,0.00,,,0.01,WUHU216HW,2013-04-25 01:02:00,
2013-04-24 21:04:00,61.9,54.3,29.73,SSW,203,9.2,9.2,76,0.00,,,0.01,WUHU216HW,2013-04-25 01:04:00,
2013-04-24 21:05:00,62.1,54.5,29.73,SSW,203,7.2,9.2,76,0.00,,,0.01,WUHU216HW,2013-04-25 01:05:00,
2013-04-24 21:06:00,62.1,54.8,29.73,SSW,203,7.6,9.2,77,0.00,,,0.01,WUHU216HW,2013-04-25 01:06:00,
2013-04-24 21:08:00,61.7,54.5,29.74,SW,225,7.6,9.2,77,0.00,,,0.01,WUHU216HW,2013-04-25 01:08:00,
2013-04-24 21:09:00,61.7,54.5,29.74,SW,225,6.5,9.2,77,0.00,,,0.01,WUHU216HW,2013-04-25 01:09:00,
2013-04-24 21:10:00,61.7,54.5,29.74,SW,225,6.5,9.2,77,0.00,,,0.01,WUHU216HW,2013-04-25 01:10:00,
2013-04-24 21:11:00,61.7,54.5,29.74,SW,225,6.7,9.2,77,0.00,,,0.01,WUHU216HW,2013-04-25 01:11:00,
2013-04-24 21:14:00,61.2,54.7,29.74,WSW,248,6.9,8.1,79,0.00,,,0.01,WUHU216HW,2013-04-25 01:14:00,
2013-04-24 21:15:00,61.2,54.7,29.74,WSW,248,6.0,8.1,79,0.00,,,0.01,WUHU216HW,2013-04-25 01:15:00,
2013-04-24 21:16:00,61.2,54.7,29.74,WSW,248,6.0,8.1,79,0.00,,,0.01,WUHU216HW,2013-04-25 01:16:00,
2013-04-24 21:17:00,61.2,54.7,29.74,SW,225,7.2,8.1,79,0.00,,,0.01,WUHU216HW,2013-04-25 01:17:00,
2013-04-24 21:19:00,60.8,54.4,29.75,SSW,203,7.6,8.3,79,0.00,,,0.01,WUHU216HW,2013-04-25 01:19:00,
2013-04-24 21:21:00,60.8,54.4,29.75,SW,225,6.9,8.3,79,0.00,,,0.01,WUHU216HW,2013-04-25 01:21:00,
2013-04-24 21:22:00,60.7,54.5,29.75,SW,225,9.2,9.2,80,0.00,,,0.01,WUHU216HW,2013-04-25 01:22:00,
2013-04-24 21:25:00,60.7,54.5,29.75,SW,225,10.5,10.5,80,0.00,,,0.01,WUHU216HW,2013-04-25 01:25:00,
2013-04-24 21:26:00,60.8,54.7,29.75,SW,225,8.5,10.5,80,0.00,,,0.01,WUHU216HW,2013-04-25 01:26:00,
2013-04-24 21:27:00,60.8,54.7,29.75,WSW,248,6.9,10.5,80,0.00,,,0.01,WUHU216HW,2013-04-25 01:27:00,
2013-04-24 21:28:00,60.8,54.7,29.75,WSW,248,6.9,10.5,80,0.00,,,0.01,WUHU216HW,2013-04-25 01:28:00,
2013-04-24 21:30:00,60.5,54.4,29.75,SW,225,7.2,10.5,80,0.00,,,0.01,WUHU216HW,2013-04-25 01:30:00,
2013-04-24 21:31:00,60.5,54.4,29.75,SW,225,7.2,10.5,80,0.00,,,0.01,WUHU216HW,2013-04-25 01:31:00,
2013-04-24 21:33:00,60.5,54.4,29.75,SW,225,6.5,10.5,80,0.00,,,0.01,WUHU216HW,2013-04-25 01:33:00,
2013-04-24 21:36:00,60.5,54.7,29.75,SW,225,2.0,8.7,81,0.00,,,0.01,WUHU216HW,2013-04-25 01:36:00,
2013-04-24 21:38:00,60.3,54.6,29.75,WSW,248,6.5,7.4,81,0.00,,,0.01,WUHU216HW,2013-04-25 01:38:00,
2013-04-24 21:40:00,60.3,54.6,29.75,SSW,203,3.4,7.4,81,0.00,,,0.01,WUHU216HW,2013-04-25 01:40:00,
2013-04-24 21:41:00,60.1,54.4,29.75,WSW,248,6.0,7.4,81,0.00,,,0.01,WUHU216HW,2013-04-25 01:41:00,
2013-04-24 21:44:00,60.1,54.4,29.76,West,270,4.7,6.5,81,0.00,,,0.01,WUHU216HW,2013-04-25 01:44:00,
2013-04-24 21:45:00,60.1,54.4,29.76,NW,315,3.6,6.5,81,0.00,,,0.01,WUHU216HW,2013-04-25 01:45:00,
2013-04-24 21:47:00,60.1,54.4,29.76,WNW,293,5.4,6.5,81,0.00,,,0.01,WUHU216HW,2013-04-25 01:47:00,
2013-04-24 21:48:00,60.1,54.4,29.77,West,270,5.6,6.0,81,0.00,,,0.01,WUHU216HW,2013-04-25 01:48:00,
2013-04-24 21:49:00,60.1,54.4,29.77,WNW,293,6.3,6.3,81,0.00,,,0.01,WUHU216HW,2013-04-25 01:49:00,
2013-04-24 21:50:00,60.1,54.4,29.77,WNW,293,10.1,10.1,81,0.00,,,0.01,WUHU216HW,2013-04-25 01:50:00,
2013-04-24 21:51:00,60.1,54.6,29.78,WNW,293,10.5,10.5,82,0.00,,,0.01,WUHU216HW,2013-04-25 01:51:00,
2013-04-24 21:53:00,60.1,54.6,29.78,WSW,248,10.7,10.7,82,0.00,,,0.01,WUHU216HW,2013-04-25 01:53:00,
2013-04-24 21:54:00,60.3,54.8,29.78,WNW,293,7.4,10.7,82,0.00,,,0.01,WUHU216HW,2013-04-25 01:54:00,
2013-04-24 21:56:00,60.5,54.7,29.79,WNW,293,8.5,11.9,81,0.00,,,0.01,WUHU216HW,2013-04-25 01:56:00,
2013-04-24 21:57:00,60.7,54.9,29.79,West,270,7.6,11.9,81,0.00,,,0.01,WUHU216HW,2013-04-25 01:57:00,
2013-04-24 21:58:00,60.7,54.9,29.79,West,270,8.5,11.9,81,0.00,,,0.01,WUHU216HW,2013-04-25 01:58:00,
2013-04-24 21:59:00,60.7,54.9,29.79,West,270,8.5,11.9,81,0.00,,,0.01,WUHU216HW,2013-04-25 01:59:00,
2013-04-24 22:01:00,60.7,51.7,29.79,NW,315,14.3,15.0,72,0.00,,,0.01,WUHU216HW,2013-04-25 02:01:00,
2013-04-24 22:02:00,60.7,50.9,29.79,West,270,17.2,17.2,70,0.00,,,0.01,WUHU216HW,2013-04-25 02:02:00,
2013-04-24 22:04:00,60.7,50.5,29.79,NNW,338,12.1,17.2,69,0.00,,,0.01,WUHU216HW,2013-04-25 02:04:00,
2013-04-24 22:06:00,60.7,49.7,29.80,NW,315,13.6,17.2,67,0.00,,,0.01,WUHU216HW,2013-04-25 02:06:00,
2013-04-24 22:07:00,60.7,49.7,29.80,NW,315,13.6,17.2,67,0.00,,,0.01,WUHU216HW,2013-04-25 02:07:00,
2013-04-24 22:08:00,60.7,49.3,29.80,NW,315,10.7,17.2,66,0.00,,,0.01,WUHU216HW,2013-04-25 02:08:00,
2013-04-24 22:09:00,60.7,49.3,29.80,WNW,293,7.8,17.2,66,0.00,,,0.01,WUHU216HW,2013-04-25 02:09:00,
2013-04-24 22:10:00,60.7,49.3,29.80,WNW,293,7.8,17.2,66,0.00,,,0.01,WUHU216HW,2013-04-25 02:10:00,
2013-04-24 22:11:00,60.7,48.9,29.80,NW,315,13.4,17.2,65,0.00,,,0.01,WUHU216HW,2013-04-25 02:11:00,
2013-04-24 22:12:00,60.7,48.9,29.80,NW,315,7.6,13.6,65,0.00,,,0.01,WUHU216HW,2013-04-25 02:12:00,
2013-04-24 22:14:00,60.5,48.7,29.80,NW,315,6.7,13.6,65,0.00,,,0.01,WUHU216HW,2013-04-25 02:14:00,
2013-04-24 22:15:00,60.3,47.7,29.81,NW,315,17.7,17.7,63,0.00,,,0.01,WUHU216HW,2013-04-25 02:15:00,
2013-04-24 22:17:00,60.1,47.5,29.81,NW,315,10.5,17.7,63,0.00,,,0.01,WUHU216HW,2013-04-25 02:17:00,
2013-04-24 22:19:00,60.1,47.1,29.81,NNW,338,12.1,17.7,62,0.00,,,0.01,WUHU216HW,2013-04-25 02:19:00,
2013-04-24 22:20:00,59.9,46.9,29.81,NW,315,6.0,17.7,62,0.00,,,0.01,WUHU216HW,2013-04-25 02:20:00,
2013-04-24 22:22:00,59.9,46.5,29.80,NNW,338,10.5,17.7,61,0.00,,,0.01,WUHU216HW,2013-04-25 02:22:00,
2013-04-24 22:24:00,59.8,46.4,29.81,NNW,338,7.4,17.7,61,0.00,,,0.01,WUHU216HW,2013-04-25 02:24:00,
2013-04-24 22:26:00,59.8,46.7,29.81,North,0,6.5,12.1,62,0.00,,,0.01,WUHU216HW,2013-04-25 02:26:00,
2013-04-24 22:27:00,59.8,46.7,29.81,WNW,293,6.3,12.1,62,0.00,,,0.01,WUHU216HW,2013-04-25 02:27:00,
2013-04-24 22:28:00,59.6,45.7,29.82,NNE,23,5.6,12.1,60,0.00,,,0.01,WUHU216HW,2013-04-25 02:28:00,
2013-04-24 22:29:00,59.4,46.0,29.82,WNW,293,4.9,11.2,61,0.00,,,0.01,WUHU216HW,2013-04-25 02:29:00,
2013-04-24 22:32:00,59.4,45.5,29.81,NW,315,9.8,11.2,60,0.00,,,0.01,WUHU216HW,2013-04-25 02:32:00,
2013-04-24 22:33:00,59.4,45.5,29.81,NW,315,4.0,9.8,60,0.00,,,0.01,WUHU216HW,2013-04-25 02:33:00,
2013-04-24 22:34:00,59.2,45.8,29.82,NW,315,7.6,9.8,61,0.00,,,0.01,WUHU216HW,2013-04-25 02:34:00,
2013-04-24 22:37:00,59.0,45.2,29.82,WNW,293,4.7,9.8,60,0.00,,,0.01,WUHU216HW,2013-04-25 02:37:00,
2013-04-24 22:38:00,59.0,45.2,29.82,WNW,293,4.7,9.8,60,0.00,,,0.01,WUHU216HW,2013-04-25 02:38:00,
2013-04-24 22:39:00,59.0,45.2,29.82,NW,315,2.9,9.8,60,0.00,,,0.01,WUHU216HW,2013-04-25 02:39:00,
2013-04-24 22:42:00,59.0,45.2,29.82,West,270,4.9,9.6,60,0.00,,,0.01,WUHU216HW,2013-04-25 02:42:00,
2013-04-24 22:44:00,58.9,45.0,29.82,NNW,338,14.5,14.5,60,0.00,,,0.01,WUHU216HW,2013-04-25 02:44:00,
2013-04-24 22:45:00,58.9,45.0,29.82,West,270,3.4,14.5,60,0.00,,,0.01,WUHU216HW,2013-04-25 02:45:00,
2013-04-24 22:48:00,58.7,44.8,29.83,NW,315,4.0,14.5,60,0.00,,,0.01,WUHU216HW,2013-04-25 02:48:00,
2013-04-24 22:49:00,58.7,44.8,29.83,NW,315,8.5,14.5,60,0.00,,,0.01,WUHU216HW,2013-04-25 02:49:00,
2013-04-24 22:51:00,58.9,45.0,29.83,WNW,293,7.2,14.5,60,0.00,,,0.01,WUHU216HW,2013-04-25 02:51:00,
2013-04-24 22:53:00,58.9,45.5,29.83,NNW,338,3.4,14.5,61,0.00,,,0.01,WUHU216HW,2013-04-25 02:53:00,
2013-04-24 22:54:00,58.9,44.6,29.83,NNW,338,5.6,9.4,59,0.00,,,0.01,WUHU216HW,2013-04-25 02:54:00,
2013-04-24 22:55:00,58.9,45.0,29.83,WNW,293,9.8,9.8,60,0.00,,,0.01,WUHU216HW,2013-04-25 02:55:00,
2013-04-24 22:56:00,58.9,44.6,29.83,NW,315,9.4,13.2,59,0.00,,,0.01,WUHU216HW,2013-04-25 02:56:00,
2013-04-24 22:58:00,58.9,45.0,29.83,NW,315,6.0,13.2,60,0.00,,,0.01,WUHU216HW,2013-04-25 02:58:00,
2013-04-24 22:59:00,58.9,45.0,29.83,NNW,338,6.3,13.2,60,0.00,,,0.01,WUHU216HW,2013-04-25 02:59:00,
2013-04-24 23:01:00,58.9,44.6,29.83,NNE,23,8.5,13.2,59,0.00,,,0.01,WUHU216HW,2013-04-25 03:01:00,
2013-04-24 23:02:00,58.9,44.6,29.83,WNW,293,10.1,13.2,59,0.00,,,0.01,WUHU216HW,2013-04-25 03:02:00,
2013-04-24 23:04:00,58.9,45.0,29.84,NW,315,8.3,13.2,60,0.00,,,0.01,WUHU216HW,2013-04-25 03:04:00,
2013-04-24 23:06:00,58.7,44.8,29.84,NW,315,9.8,12.8,60,0.00,,,0.01,WUHU216HW,2013-04-25 03:06:00,
2013-04-24 23:08:00,58.7,44.4,29.84,NW,315,10.3,12.8,59,0.00,,,0.01,WUHU216HW,2013-04-25 03:08:00,
2013-04-24 23:09:00,58.7,44.4,29.84,NW,315,11.6,12.8,59,0.00,,,0.01,WUHU216HW,2013-04-25 03:09:00,
2013-04-24 23:13:00,58.5,43.7,29.84,NW,315,16.8,16.8,58,0.00,,,0.01,WUHU216HW,2013-04-25 03:13:00,
2013-04-24 23:14:00,58.3,43.6,29.85,WNW,293,11.2,16.8,58,0.00,,,0.01,WUHU216HW,2013-04-25 03:14:00,
2013-04-24 23:15:00,58.3,43.6,29.85,NW,315,7.6,16.8,58,0.00,,,0.01,WUHU216HW,2013-04-25 03:15:00,
2013-04-24 23:18:00,58.0,43.3,29.85,WNW,293,8.1,16.8,58,0.00,,,0.01,WUHU216HW,2013-04-25 03:18:00,
2013-04-24 23:20:00,58.0,43.3,29.85,West,270,11.0,16.8,58,0.00,,,0.01,WUHU216HW,2013-04-25 03:20:00,
2013-04-24 23:21:00,58.0,43.3,29.85,West,270,11.0,16.8,58,0.00,,,0.01,WUHU216HW,2013-04-25 03:21:00,
2013-04-24 23:22:00,57.6,42.9,29.85,West,270,7.6,16.8,58,0.00,,,0.01,WUHU216HW,2013-04-25 03:22:00,
2013-04-24 23:24:00,57.6,42.9,29.85,West,270,7.4,11.0,58,0.00,,,0.01,WUHU216HW,2013-04-25 03:24:00,
2013-04-24 23:25:00,57.4,43.3,29.85,West,270,7.8,11.0,59,0.00,,,0.01,WUHU216HW,2013-04-25 03:25:00,
2013-04-24 23:26:00,57.4,43.3,29.85,NW,315,8.5,11.0,59,0.00,,,0.01,WUHU216HW,2013-04-25 03:26:00,
2013-04-24 23:28:00,57.4,43.3,29.85,NW,315,9.2,11.0,59,0.00,,,0.01,WUHU216HW,2013-04-25 03:28:00,
2013-04-24 23:31:00,57.2,43.6,29.85,NNW,338,3.6,10.1,60,0.00,,,0.01,WUHU216HW,2013-04-25 03:31:00,
2013-04-24 23:32:00,57.2,43.6,29.85,NNW,338,3.6,10.1,60,0.00,,,0.01,WUHU216HW,2013-04-25 03:32:00,
2013-04-24 23:33:00,57.2,43.6,29.85,North,0,4.5,10.1,60,0.00,,,0.01,WUHU216HW,2013-04-25 03:33:00,
2013-04-24 23:37:00,56.9,43.2,29.86,NNW,338,2.9,10.1,60,0.00,,,0.01,WUHU216HW,2013-04-25 03:37:00,
2013-04-24 23:38:00,56.9,43.2,29.86,North,0,4.0,10.1,60,0.00,,,0.01,WUHU216HW,2013-04-25 03:38:00,
2013-04-24 23:39:00,56.7,43.0,29.86,NNW,338,4.3,10.1,60,0.00,,,0.01,WUHU216HW,2013-04-25 03:39:00,
2013-04-24 23:40:00,56.7,43.0,29.86,NNW,338,4.3,10.1,60,0.00,,,0.01,WUHU216HW,2013-04-25 03:40:00,
2013-04-24 23:42:00,56.3,42.7,29.86,NNW,338,4.5,8.7,60,0.00,,,0.01,WUHU216HW,2013-04-25 03:42:00,
2013-04-24 23:43:00,56.2,42.5,29.86,NW,315,4.0,8.7,60,0.00,,,0.01,WUHU216HW,2013-04-25 03:43:00,
2013-04-24 23:44:00,56.2,42.5,29.86,NW,315,4.0,8.7,60,0.00,,,0.01,WUHU216HW,2013-04-25 03:44:00,
2013-04-24 23:45:00,56.2,42.5,29.86,North,0,3.8,8.7,60,0.00,,,0.01,WUHU216HW,2013-04-25 03:45:00,
2013-04-24 23:48:00,55.8,42.1,29.86,NNE,23,2.5,8.7,60,0.00,,,0.01,WUHU216HW,2013-04-25 03:48:00,
2013-04-24 23:50:00,55.6,42.4,29.87,NNW,338,2.0,8.7,61,0.00,,,0.01,WUHU216HW,2013-04-25 03:50:00,
2013-04-24 23:51:00,55.4,42.2,29.87,NNW,338,2.5,8.7,61,0.00,,,0.01,WUHU216HW,2013-04-25 03:51:00,
2013-04-24 23:52:00,55.3,42.0,29.87,North,0,3.8,4.3,61,0.00,,,0.01,WUHU216HW,2013-04-25 03:52:00,
2013-04-24 23:54:00,55.1,41.9,29.87,North,0,3.8,4.3,61,0.00,,,0.01,WUHU216HW,2013-04-25 03:54:00,
2013-04-24 23:55:00,55.1,42.3,29.87,NNE,23,4.0,4.3,62,0.00,,,0.01,WUHU216HW,2013-04-25 03:55:00,
2013-04-24 23:56:00,54.9,41.7,29.87,North,0,3.1,4.3,61,0.00,,,0.01,WUHU216HW,2013-04-25 03:56:00,
2013-04-24 23:57:00,54.7,42.0,29.87,North,0,2.5,4.0,62,0.00,,,0.01,WUHU216HW,2013-04-25 03:57:00,
2013-04-24 23:59:00,54.7,42.0,29.87,NE,45,3.6,4.0,62,0.00,,,0.01,WUHU216HW,2013-04-25 03:59:00,